GFSWCAN_prec_kuchsnow_216.txt.gz
Snowfall_Accumulation
0.0 0.0 0.0 0.0 0.0 0.0 0.0 0.0 0.0 0.0 0.0 0.0 0.0 0.0 0.0 0.0 0.0 0.0 0.0 0.0 0.0 9.8 1.6 0.0 0.0 0.4 0.5 0.2 1.8 3.3 3.5 5.7 5.1 9.4 10.7 8.5 5.8 1.8 1.2 0.9 3.5 2.0 7.0 8.8 8.3 15.7 11.7 0.0 0.0 1.5 2.3 0.4 0.2 0.2
0.0 0.0 0.0 0.0 0.0 0.0 0.0 0.0 0.0 0.0 0.0 0.0 0.0 0.0 0.0 0.0 0.0 0.0 0.0 0.0 0.0 0.8 3.0 0.0 0.0 0.0 0.0 0.0 0.0 0.0 0.6 0.4 0.6 5.2 3.4 3.1 8.0 3.8 2.8 5.7 0.0 9.0 2.1 5.8 5.7 5.7 1.0 0.1 0.8 0.5 0.3 0.2 0.2 0.0
0.0 0.0 0.0 0.0 0.0 0.0 0.0 0.0 0.0 0.0 0.0 0.0 0.0 0.0 0.0 0.0 0.0 0.0 0.0 0.0 0.0 5.3 5.3 0.0 1.9 0.0 0.0 0.0 0.0 0.2 0.0 0.0 0.0 0.0 1.5 4.2 7.6 1.9 5.1 2.7 2.4 2.2 0.9 5.2 2.6 1.9 0.4 0.1 0.1 0.1 0.1 0.1 0.0 0.1
0.0 0.0 0.0 0.0 0.0 0.0 0.0 0.0 0.0 0.0 0.0 0.0 0.0 0.0 0.0 0.0 0.0 0.0 0.0 0.0 0.0 0.1 13.6 8.2 0.0 0.0 0.0 0.0 0.0 0.0 0.0 0.0 0.0 0.0 5.9 8.2 6.4 0.0 1.1 0.4 0.7 0.7 2.0 6.5 5.3 2.5 1.3 0.6 0.6 0.8 0.2 0.0 0.0 0.0
0.0 0.0 0.0 0.0 0.0 0.0 0.0 0.0 0.0 0.0 0.0 0.0 0.0 0.0 0.0 0.0 0.0 0.0 0.0 0.0 0.0 0.0 11.8 5.5 0.3 0.0 0.0 0.0 0.0 0.0 0.0 0.0 0.0 7.5 10.4 6.5 0.4 0.4 0.2 0.2 2.7 1.1 5.7 5.3 15.0 6.7 3.6 3.3 2.2 1.4 1.1 0.1 0.1 0.0
0.0 0.0 0.0 0.0 0.0 0.0 0.0 0.0 0.0 0.0 0.0 0.0 0.0 0.0 0.0 0.0 0.0 0.0 12.2 0.0 0.0 0.0 3.0 7.6 1.3 1.2 0.0 0.0 0.0 0.0 0.0 0.0 0.0 4.9 7.1 3.2 0.0 0.7 5.1 2.4 1.0 1.1 1.5 2.2 5.5 5.4 3.8 3.7 2.7 1.9 1.8 1.3 0.1 0.0
0.0 0.0 0.0 0.0 0.0 0.0 0.0 0.0 0.0 0.0 0.0 0.0 0.0 0.0 0.0 0.0 0.0 0.0 1.8 0.0 0.0 0.0 4.8 12.3 4.1 1.4 0.0 0.0 0.0 0.0 0.0 0.4 0.6 2.2 3.9 1.3 0.3 0.5 4.1 4.4 1.2 1.4 1.5 1.8 1.7 1.9 3.6 3.4 3.8 1.7 0.9 0.9 0.5 0.4
0.0 0.0 0.0 0.0 0.0 0.0 0.0 0.0 0.0 0.0 0.0 0.0 0.0 0.0 0.0 0.0 0.0 0.2 0.0 0.0 0.0 0.0 0.0 13.6 7.5 2.5 0.0 1.5 2.3 0.0 0.7 0.7 2.4 1.6 1.3 0.7 0.7 1.9 10.2 0.4 0.3 0.7 0.4 1.4 1.1 0.5 1.3 1.3 1.1 1.0 0.7 0.6 0.6 0.5
0.0 0.0 0.0 0.0 0.0 0.0 0.0 0.0 0.0 0.0 0.0 0.0 0.0 0.0 0.0 0.0 10.1 1.3 0.0 0.0 0.0 0.0 15.2 5.7 4.7 10.8 0.0 0.8 0.4 1.1 0.5 10.7 0.6 2.9 0.7 0.1 4.5 13.2 7.1 1.2 0.8 0.6 0.7 0.6 0.4 0.1 0.2 0.8 1.0 0.8 1.0 0.8 0.4 1.5
0.0 0.0 0.0 0.0 0.0 0.0 0.0 0.0 0.0 0.0 0.0 0.0 0.0 6.5 48.2 5.8 0.0 0.0 0.0 9.8 9.5 6.2 3.3 5.1 0.2 5.7 0.0 3.8 5.4 4.0 4.3 5.6 9.1 2.0 0.0 5.9 6.3 4.7 2.3 1.1 0.4 1.3 0.2 0.2 0.5 0.5 0.1 0.3 0.4 0.1 0.2 0.2 0.3 0.5
0.0 0.0 0.0 0.0 0.0 0.0 0.0 0.0 0.0 0.0 0.0 0.0 16.6 21.0 1.9 0.0 0.0 5.8 22.0 18.8 8.9 9.7 1.2 0.3 0.4 1.9 0.0 9.3 10.4 3.9 10.4 3.6 7.4 2.3 3.2 7.7 5.7 4.8 2.3 2.8 1.9 1.8 0.9 0.9 0.7 0.2 0.0 0.1 0.6 0.5 0.4 0.3 0.0 0.0
0.0 0.0 0.0 0.0 0.0 0.0 0.0 0.0 0.0 0.0 0.0 0.0 0.0 0.0 0.6 4.5 13.1 19.4 15.3 7.9 3.2 3.3 2.2 1.5 1.8 1.4 3.0 1.4 8.8 9.6 13.7 8.9 9.9 2.7 13.9 7.7 7.6 3.0 2.1 2.0 1.9 2.4 2.3 1.4 0.5 2.1 2.2 1.2 0.8 0.3 0.1 0.3 0.3 0.5
0.0 0.0 0.0 0.0 0.0 0.0 0.0 0.0 0.0 0.0 0.0 0.0 3.2 19.1 23.0 22.9 27.9 17.1 9.8 4.0 2.8 1.6 1.8 1.7 4.2 1.2 1.0 0.9 11.4 10.6 12.3 13.8 3.8 18.7 12.1 6.9 3.2 1.4 1.0 0.7 1.0 1.4 1.7 2.0 2.2 1.8 2.1 3.2 3.8 3.6 4.1 6.3 6.5 8.8
0.0 0.0 0.0 0.0 0.0 0.0 0.0 0.0 0.0 0.0 0.0 10.6 15.8 27.6 24.0 20.2 11.0 8.7 3.5 3.2 2.2 2.5 2.6 3.4 7.0 6.5 4.0 8.9 11.7 19.7 9.5 7.2 15.4 17.7 8.9 9.8 8.1 4.9 2.2 1.5 1.4 3.3 3.8 3.1 4.1 5.7 6.4 8.2 10.9 12.4 13.3 14.6 13.3 15.4
0.0 0.0 0.0 0.0 0.0 0.0 0.0 0.0 0.0 0.0 3.6 14.1 12.1 19.5 11.3 11.8 6.9 6.3 4.8 3.0 3.2 4.0 7.5 10.6 10.9 8.2 9.8 13.6 9.4 10.3 13.6 11.7 8.9 9.8 14.7 12.3 7.8 3.8 3.5 2.8 3.2 4.8 5.8 6.9 7.6 7.8 9.1 8.7 7.5 11.0 12.3 12.0 10.0 11.4
0.0 0.0 0.0 0.0 0.0 0.0 0.0 0.0 0.5 1.0 4.4 6.1 8.2 9.5 6.8 9.1 10.2 8.4 7.4 7.5 2.9 6.5 4.0 9.3 16.1 18.8 17.1 11.0 12.1 9.8 7.4 9.2 13.7 10.2 9.3 5.4 5.0 4.7 5.0 5.2 6.7 7.8 8.3 8.5 8.6 7.8 7.9 7.9 6.8 8.6 9.0 8.5 9.3 7.9
0.0 0.9 0.0 0.0 0.0 0.0 0.0 1.3 1.9 4.1 4.8 4.8 9.5 9.0 8.4 9.3 12.6 10.6 9.0 7.3 3.7 8.8 10.1 5.9 12.4 14.7 8.9 9.4 11.5 9.0 14.9 14.1 13.1 11.1 6.8 5.3 5.9 7.2 8.0 8.7 9.6 9.5 9.2 8.3 8.0 7.7 8.4 7.7 6.2 4.7 7.0 10.1 7.7 7.5
0.2 0.0 0.0 0.0 0.0 0.0 1.6 1.2 1.8 2.2 3.6 6.4 10.2 12.1 8.7 12.5 12.6 9.7 8.6 6.6 7.3 6.6 4.6 10.1 2.3 5.3 6.9 8.0 9.1 13.8 13.4 10.7 7.6 7.9 9.4 9.6 9.0 9.2 9.6 11.2 11.7 10.3 9.2 9.7 8.9 8.6 8.7 8.5 6.9 8.7 8.0 8.2 6.3 6.7
0.1 0.0 0.0 0.0 0.0 1.2 4.4 3.6 1.0 3.8 7.4 6.3 8.1 6.5 6.0 8.4 8.0 8.6 7.3 5.8 7.3 6.2 7.0 7.6 8.0 8.0 12.0 12.4 13.2 11.7 10.8 8.1 10.4 11.7 12.2 12.0 11.5 11.4 12.5 11.4 11.7 11.7 10.7 11.4 9.6 9.1 9.5 8.8 7.7 7.3 6.8 6.0 6.0 5.7
0.0 0.0 0.0 0.0 0.0 0.8 2.1 1.5 0.3 0.2 5.0 5.9 4.9 4.3 3.5 6.1 4.0 2.7 1.8 2.8 4.4 9.5 11.5 10.9 15.7 19.1 18.4 17.4 14.7 12.9 12.1 7.9 7.3 7.7 12.1 13.6 14.2 11.5 12.7 10.6 10.7 10.5 8.9 9.3 9.2 8.4 7.1 6.6 6.6 5.7 4.5 3.0 3.5 3.8
0.0 0.0 0.0 0.0 0.1 0.1 0.3 1.1 1.8 0.5 1.0 2.8 1.1 0.3 2.3 0.4 0.3 0.4 0.3 1.0 6.2 12.2 17.4 20.3 20.3 19.6 18.1 16.8 12.6 10.3 10.6 7.7 9.3 6.9 9.1 12.9 13.9 9.0 10.4 10.8 9.3 8.3 7.7 8.7 8.2 8.9 6.7 6.4 4.8 3.8 4.4 5.0 3.9 4.4
0.0 0.0 0.9 0.0 1.8 0.9 0.9 0.0 0.1 0.5 0.6 0.9 0.6 0.5 1.0 1.7 0.8 0.8 0.2 1.4 9.6 14.4 15.2 15.4 15.1 13.7 12.2 14.1 14.9 11.2 12.2 8.1 7.2 6.6 7.9 6.7 10.1 10.0 11.3 11.8 8.9 9.4 8.9 8.8 6.5 5.7 4.7 3.7 3.3 3.3 3.9 4.7 4.7 5.8
0.0 1.0 3.5 2.6 3.6 1.0 0.7 0.1 0.5 0.2 0.6 0.8 0.4 0.8 0.9 2.1 1.7 0.3 1.3 2.2 10.0 12.5 9.5 7.7 9.3 8.9 9.9 12.7 8.3 9.0 10.1 7.6 7.9 8.5 9.0 8.9 8.7 8.8 7.7 8.2 6.9 5.5 5.5 6.0 4.4 4.6 5.2 4.3 3.8 4.2 4.3 4.1 5.8 5.8
0.0 4.4 6.5 4.3 2.7 3.3 1.0 2.1 0.8 0.3 0.2 0.5 0.9 0.7 1.1 1.0 0.2 0.8 2.7 6.6 10.9 6.2 5.1 7.2 5.6 5.6 5.3 5.2 7.5 9.1 10.9 7.0 6.6 7.0 7.4 4.5 4.2 5.2 3.4 4.1 4.3 4.6 5.3 4.5 3.8 4.5 4.4 5.4 5.6 5.0 4.8 5.5 6.4 5.5
4.1 3.1 3.9 3.4 1.5 1.5 0.6 0.7 1.1 0.6 0.4 0.2 0.4 0.9 1.1 0.0 0.9 1.1 2.6 8.4 7.0 6.5 6.0 4.8 3.0 3.1 5.0 7.4 8.5 8.1 5.7 3.5 3.6 4.4 5.3 3.2 3.4 3.5 3.3 3.3 3.5 4.1 3.6 3.6 3.8 5.1 5.7 5.2 5.5 5.0 5.0 5.1 6.0 5.9
3.0 0.8 1.2 1.3 1.2 0.9 0.2 0.5 0.5 0.9 0.4 0.7 1.6 1.0 0.4 0.9 1.2 3.3 5.7 9.3 7.7 7.2 7.6 7.2 5.5 3.3 3.1 3.1 3.8 3.4 3.6 2.5 1.9 2.7 3.6 2.4 2.9 3.9 3.7 3.7 3.5 3.8 2.9 4.5 5.4 6.1 4.9 4.2 4.7 4.3 5.4 5.0 5.9 6.0
1.9 1.5 0.5 0.0 1.7 2.5 2.6 1.5 1.5 2.0 2.1 2.6 2.4 1.8 2.5 3.2 4.4 7.3 7.2 6.8 5.8 6.2 4.5 3.9 2.4 2.3 2.9 3.0 1.7 1.6 1.3 0.9 1.2 2.8 3.3 2.8 2.6 3.0 3.7 6.1 6.6 6.4 3.8 4.3 4.8 5.2 5.5 5.4 5.5 5.1 5.4 6.1 5.7 6.3
0.3 0.5 1.3 2.1 3.0 3.1 4.9 3.9 3.6 4.2 4.1 3.3 3.1 3.4 3.4 4.2 7.4 8.8 7.7 6.5 5.4 2.9 2.0 1.6 1.6 1.8 2.1 2.6 2.6 2.2 1.9 1.6 1.8 2.3 2.6 2.5 2.2 3.4 3.9 3.4 3.3 2.6 2.8 3.5 3.7 3.6 4.1 4.9 6.1 6.1 6.5 6.3 6.6 6.0
1.0 0.9 0.9 1.6 1.9 1.6 2.8 3.6 4.0 4.1 3.2 3.0 3.1 3.3 4.1 4.7 10.0 9.2 7.7 5.9 4.0 2.5 2.6 2.4 3.9 2.2 2.0 3.1 1.9 1.8 2.3 2.9 4.2 5.1 6.0 7.7 6.1 5.2 3.3 2.7 2.6 2.4 2.3 2.5 2.3 2.7 3.6 4.3 5.5 5.2 6.7 6.7 7.1 7.1
0.6 0.5 0.5 0.2 0.5 0.7 4.2 2.0 2.6 2.2 0.5 1.4 1.0 0.9 1.2 7.9 11.7 8.3 6.8 5.0 4.6 5.6 6.8 5.2 4.7 2.6 3.9 1.8 4.3 2.8 3.4 3.7 4.4 5.9 7.4 7.0 6.7 5.1 2.8 2.4 1.9 2.1 2.1 2.5 2.7 2.7 2.6 2.4 3.2 3.4 4.6 5.1 7.0 8.0
0.8 1.6 2.2 1.6 2.2 3.5 2.8 1.3 1.6 1.8 2.2 2.3 2.4 2.4 4.1 6.2 8.7 5.4 5.6 7.8 4.8 3.8 3.0 3.4 3.6 4.4 4.2 4.2 5.0 4.5 6.2 5.0 4.9 5.3 6.1 6.5 4.9 3.4 2.7 2.1 2.2 1.9 2.1 1.9 2.3 2.5 3.3 3.3 4.7 5.5 4.7 5.1 5.5 6.3
2.1 3.4 3.8 3.6 4.4 3.4 3.8 5.6 3.6 4.2 3.6 3.7 4.0 2.1 4.6 4.9 3.7 6.3 4.8 4.9 5.2 5.3 5.1 5.6 5.9 7.1 7.0 8.0 7.2 6.9 6.4 5.4 4.5 4.0 3.9 3.8 3.9 3.1 2.4 1.7 2.2 2.5 2.4 2.2 2.4 2.3 2.7 3.9 4.9 5.4 6.0 5.4 5.8 5.6
2.1 2.7 2.8 3.8 3.6 4.4 4.5 5.8 4.9 5.7 4.9 4.6 5.2 5.5 5.8 4.5 5.8 8.8 4.2 4.8 10.6 11.1 9.2 8.6 9.0 8.9 9.2 7.5 6.3 6.3 5.8 5.1 4.0 3.2 3.1 2.5 2.0 1.6 1.4 1.9 1.9 2.5 2.7 2.9 3.0 2.9 3.1 3.0 3.6 3.7 3.5 3.8 3.8 3.4

GFSWCAN_prec_kuchsnow_219.txt.gz
Snowfall_Accumulation
0.0 0.0 0.0 0.0 0.0 0.0 0.0 0.0 0.0 0.0 0.0 0.0 0.0 0.0 0.0 0.0 0.0 0.0 0.0 0.0 0.0 12.0 2.2 0.0 0.0 0.4 0.5 0.2 1.8 3.3 3.5 5.7 5.1 9.4 10.7 10.8 7.2 2.3 1.2 0.9 3.5 2.0 7.2 9.3 8.6 17.0 13.2 0.0 0.0 1.5 2.3 0.4 0.2 0.2
0.0 0.0 0.0 0.0 0.0 0.0 0.0 0.0 0.0 0.0 0.0 0.0 0.0 0.0 0.0 0.0 0.0 0.0 0.0 0.0 0.0 0.8 3.8 0.0 0.0 0.0 0.0 0.0 0.0 0.0 0.6 0.4 0.6 5.2 3.4 3.1 9.9 4.9 3.3 6.1 0.0 9.1 2.1 5.8 5.7 5.7 1.0 0.1 0.8 0.5 0.3 0.2 0.2 0.0
0.0 0.0 0.0 0.0 0.0 0.0 0.0 0.0 0.0 0.0 0.0 0.0 0.0 0.0 0.0 0.0 0.0 0.0 0.0 0.0 0.0 5.3 5.3 0.0 1.9 0.0 0.0 0.0 0.0 0.2 0.0 0.0 0.0 0.0 1.5 4.2 9.0 1.9 6.4 3.2 2.4 2.2 0.9 5.2 2.6 1.9 0.4 0.1 0.1 0.1 0.1 0.1 0.0 0.1
0.0 0.0 0.0 0.0 0.0 0.0 0.0 0.0 0.0 0.0 0.0 0.0 0.0 0.0 0.0 0.0 0.0 0.0 0.0 0.0 0.0 0.1 14.6 8.7 0.0 0.0 0.0 0.0 0.0 0.0 0.0 0.0 0.0 0.0 7.3 10.0 8.2 0.0 1.7 0.4 0.7 0.7 2.0 6.5 5.3 2.5 1.3 0.6 0.6 0.8 0.2 0.0 0.0 0.0
0.0 0.0 0.0 0.0 0.0 0.0 0.0 0.0 0.0 0.0 0.0 0.0 0.0 0.0 0.0 0.0 0.0 0.0 0.0 0.0 0.0 0.0 11.8 5.5 0.3 0.0 0.0 0.0 0.0 0.0 0.0 0.0 0.9 9.6 12.6 8.1 1.1 0.9 0.7 0.5 3.0 1.1 5.7 5.3 15.0 6.7 3.6 3.3 2.2 1.4 1.1 0.1 0.1 0.0
0.0 0.0 0.0 0.0 0.0 0.0 0.0 0.0 0.0 0.0 0.0 0.0 0.0 0.0 0.0 0.0 0.0 0.0 12.2 0.0 0.0 0.0 3.1 8.8 1.3 1.2 0.0 0.0 0.0 0.0 0.0 0.0 0.9 6.3 8.2 4.2 0.0 0.7 6.5 3.2 1.0 1.1 1.5 2.2 5.5 5.4 3.8 3.7 2.7 1.9 1.8 1.3 0.1 0.0
0.0 0.0 0.0 0.0 0.0 0.0 0.0 0.0 0.0 0.0 0.0 0.0 0.0 0.0 0.0 0.0 0.0 0.0 2.4 0.0 0.0 0.0 5.1 13.2 4.1 1.4 0.0 0.0 0.0 0.0 0.0 0.4 0.6 2.8 4.7 1.6 0.3 0.5 5.4 5.3 1.2 1.4 1.5 1.8 1.7 1.9 3.6 3.4 3.8 1.7 0.9 0.9 0.5 0.4
0.0 0.0 0.0 0.0 0.0 0.0 0.0 0.0 0.0 0.0 0.0 0.0 0.0 0.0 0.0 0.0 0.0 0.2 0.0 0.0 0.0 0.0 0.0 15.3 8.4 2.6 0.0 1.6 2.4 0.0 0.7 0.8 2.9 2.4 2.2 1.4 1.1 2.4 11.3 0.4 0.3 0.7 0.4 1.4 1.1 0.5 1.3 1.3 1.1 1.0 0.7 0.6 0.6 0.5
0.0 0.0 0.0 0.0 0.0 0.0 0.0 0.0 0.0 0.0 0.0 0.0 0.0 0.0 0.0 0.0 11.1 1.3 0.0 0.0 0.0 0.0 16.8 6.9 4.7 10.8 0.0 0.8 0.4 1.1 0.5 11.0 1.0 3.5 0.7 0.1 5.1 13.9 7.1 1.2 0.8 0.6 0.7 0.6 0.4 0.1 0.2 0.8 1.0 0.8 1.0 0.8 0.4 1.5
0.0 0.0 0.0 0.0 0.0 0.0 0.0 0.0 0.0 0.0 0.0 0.0 0.0 7.2 49.3 6.0 0.0 0.0 0.0 10.7 11.8 10.2 5.5 5.9 0.2 5.7 0.0 3.8 5.5 4.1 4.4 5.7 9.1 2.0 0.0 6.2 6.3 4.7 2.3 1.1 0.4 1.3 0.2 0.2 0.5 0.6 0.1 0.3 0.4 0.1 0.2 0.2 0.3 0.5
0.0 0.0 0.0 0.0 0.0 0.0 0.0 0.0 0.0 0.0 0.0 0.0 17.2 21.4 1.9 0.0 0.0 5.8 25.1 21.0 11.5 12.4 2.7 0.9 0.4 1.9 0.0 9.3 10.4 3.9 10.4 3.6 7.4 2.3 3.2 7.7 5.7 4.8 2.3 2.8 1.9 1.8 0.9 0.9 0.7 0.2 0.0 0.1 0.6 0.5 0.4 0.3 0.0 0.0
0.0 0.0 0.0 0.0 0.0 0.0 0.0 0.0 0.0 0.0 0.0 0.0 0.0 0.0 0.6 4.5 14.8 20.5 16.2 8.1 3.2 3.3 2.2 1.6 1.9 1.4 3.0 1.4 8.8 9.7 13.7 9.1 9.9 2.7 14.3 7.7 7.6 3.0 2.1 2.0 1.9 2.4 2.3 1.4 0.5 2.1 2.2 1.2 0.8 0.3 0.1 0.3 0.3 0.5
0.0 0.0 0.0 0.0 0.0 0.0 0.0 0.0 0.0 0.0 0.0 0.0 3.2 19.1 23.0 22.9 28.3 17.1 9.8 4.0 2.8 1.6 1.9 1.7 4.3 1.2 1.0 0.9 11.4 10.6 12.5 14.0 3.8 19.0 12.1 6.9 3.2 1.4 1.0 0.7 1.0 1.4 1.7 2.0 2.2 1.8 2.1 3.2 3.8 3.6 4.1 6.3 6.5 8.8
0.0 0.0 0.0 0.0 0.0 0.0 0.0 0.0 0.0 0.0 0.0 10.6 15.8 27.6 24.0 20.2 11.0 8.7 3.5 3.2 2.2 2.5 2.6 3.4 7.0 6.5 4.1 9.0 11.9 19.8 9.5 7.2 16.0 18.1 8.9 9.8 8.1 4.9 2.2 1.5 1.4 3.3 3.8 3.1 4.1 5.7 6.4 8.2 10.9 12.4 13.3 14.6 13.3 15.4
0.0 0.0 0.0 0.0 0.0 0.0 0.0 0.0 0.0 0.0 3.6 14.1 12.1 19.5 11.3 11.8 6.9 6.3 4.8 3.0 3.2 4.0 7.5 10.6 11.1 8.2 9.8 14.0 9.4 10.3 14.0 11.7 9.1 9.8 14.7 12.3 7.8 3.8 3.5 2.8 3.2 4.8 5.8 6.9 7.6 7.8 9.1 8.7 7.5 11.0 12.3 12.0 10.0 11.4
0.0 0.0 0.0 0.0 0.0 0.0 0.0 0.0 0.5 1.0 4.4 6.1 8.2 9.5 6.8 9.1 10.2 8.4 7.4 7.5 2.9 6.5 4.0 9.3 16.4 19.0 17.1 11.0 12.3 9.8 7.4 9.2 13.7 10.2 9.3 5.4 5.0 4.7 5.0 5.2 6.7 7.8 8.3 8.5 8.6 7.8 7.9 7.9 6.8 8.6 9.0 8.5 9.3 7.9
0.0 0.9 0.0 0.0 0.0 0.0 0.0 1.3 1.9 4.1 4.8 4.8 9.5 9.0 8.4 9.3 12.6 10.6 9.0 7.3 3.7 8.8 10.3 6.0 12.4 14.7 8.9 9.4 11.5 9.0 14.9 14.1 13.1 11.1 6.8 5.3 5.9 7.2 8.0 8.7 9.6 9.5 9.2 8.3 8.0 7.7 8.4 7.7 6.2 4.7 7.0 10.1 7.7 7.5
0.2 0.0 0.0 0.0 0.0 0.0 1.6 1.2 1.8 2.2 3.6 6.4 10.2 12.1 8.7 12.5 12.6 9.7 8.6 6.6 7.6 6.9 4.7 10.1 2.3 5.3 6.9 8.0 9.1 13.8 13.4 10.7 7.6 7.9 9.4 9.6 9.0 9.2 9.6 11.2 11.7 10.3 9.2 9.7 8.9 8.6 8.7 8.5 6.9 8.7 8.0 8.2 6.3 6.7
0.1 0.0 0.0 0.0 0.0 1.2 4.4 3.6 1.0 3.8 7.4 6.3 8.1 6.5 6.0 8.4 8.0 8.6 7.3 5.8 7.3 6.2 7.0 7.6 8.0 8.0 12.0 12.4 13.2 11.7 10.8 8.1 10.4 11.7 12.2 12.0 11.5 11.4 12.5 11.4 11.7 11.7 10.7 11.4 9.6 9.1 9.5 8.8 7.7 7.3 6.8 6.0 6.0 5.7
0.0 0.0 0.0 0.0 0.0 0.8 2.1 1.5 0.3 0.2 5.0 5.9 4.9 4.3 3.5 6.1 4.0 2.7 1.8 2.8 4.4 9.5 11.5 10.9 15.7 19.1 18.4 17.4 14.7 12.9 12.1 7.9 7.3 7.7 12.1 13.6 14.2 11.5 12.7 10.6 10.7 10.5 8.9 9.3 9.2 8.4 7.1 6.6 6.6 5.7 4.5 3.0 3.5 3.8
0.0 0.0 0.0 0.0 0.1 0.1 0.3 1.1 1.8 0.5 1.0 2.8 1.1 0.3 2.3 0.4 0.3 0.4 0.3 1.0 6.2 12.2 17.4 20.3 20.3 19.6 18.1 16.8 12.6 10.3 10.6 7.7 9.3 6.9 9.1 12.9 13.9 9.0 10.4 10.8 9.3 8.3 7.7 8.7 8.2 8.9 6.7 6.4 4.8 3.8 4.4 5.0 3.9 4.4
0.0 0.0 0.9 0.0 1.8 0.9 0.9 0.0 0.1 0.5 0.6 0.9 0.6 0.5 1.0 1.7 0.8 0.8 0.2 1.4 9.6 14.4 15.2 15.4 15.1 13.7 12.2 14.1 14.9 11.2 12.2 8.1 7.2 6.6 7.9 6.7 10.1 10.0 11.3 11.8 8.9 9.4 8.9 8.8 6.5 5.7 4.7 3.7 3.3 3.3 3.9 4.7 4.7 5.8
0.0 1.0 3.5 2.6 3.6 1.0 0.7 0.1 0.5 0.2 0.6 0.8 0.4 0.8 0.9 2.1 1.7 0.3 1.3 2.2 10.0 12.5 9.5 7.7 9.3 8.9 9.9 12.7 8.3 9.0 10.1 7.6 7.9 8.5 9.0 8.9 8.7 8.8 7.7 8.2 6.9 5.5 5.5 6.0 4.4 4.6 5.2 4.3 3.8 4.2 4.3 4.1 5.9 5.9
0.0 4.4 6.5 4.3 2.7 3.3 1.0 2.1 0.8 0.3 0.2 0.5 0.9 0.7 1.1 1.0 0.2 0.8 2.7 6.6 10.9 6.2 5.1 7.2 5.6 5.6 5.3 5.2 7.5 9.1 10.9 7.0 6.6 7.0 7.4 4.5 4.2 5.2 3.4 4.1 4.3 4.6 5.3 4.5 3.8 4.5 4.4 5.4 5.6 5.0 4.8 5.5 6.4 5.6
4.1 3.1 3.9 3.4 1.5 1.5 0.6 0.7 1.1 0.6 0.4 0.2 0.4 0.9 1.1 0.0 0.9 1.1 2.6 8.4 7.0 6.5 6.0 4.8 3.0 3.1 5.0 7.4 8.5 8.1 5.7 3.5 3.6 4.4 5.3 3.2 3.4 3.5 3.3 3.3 3.5 4.1 3.6 3.6 3.8 5.1 5.7 5.2 5.5 5.0 5.0 5.1 6.0 5.9
3.0 0.8 1.2 1.3 1.2 0.9 0.2 0.5 0.5 0.9 0.4 0.7 1.6 1.0 0.4 0.9 1.2 3.3 5.7 9.3 7.7 7.2 7.6 7.2 5.5 3.3 3.1 3.1 3.8 3.4 3.6 2.5 1.9 2.7 3.6 2.4 2.9 3.9 3.7 3.7 3.5 3.8 2.9 4.5 5.4 6.1 4.9 4.2 4.7 4.3 5.4 5.0 5.9 6.0
1.9 1.5 0.5 0.0 1.7 2.5 2.6 1.5 1.5 2.0 2.1 2.6 2.4 1.8 2.5 3.2 4.4 7.3 7.2 6.8 5.8 6.2 4.5 3.9 2.4 2.3 2.9 3.0 1.7 1.6 1.3 0.9 1.2 2.8 3.3 2.8 2.6 3.0 3.7 6.1 6.6 6.4 3.8 4.3 4.8 5.2 5.5 5.4 5.5 5.1 5.4 6.1 5.7 6.3
0.3 0.5 1.3 2.1 3.0 3.1 4.9 3.9 3.6 4.2 4.1 3.3 3.1 3.4 3.4 4.2 7.4 8.8 7.7 6.5 5.4 2.9 2.0 1.6 1.6 1.8 2.1 2.6 2.6 2.2 1.9 1.6 1.8 2.3 2.6 2.5 2.2 3.4 3.9 3.4 3.3 2.6 2.8 3.5 3.7 3.6 4.1 4.9 6.1 6.1 6.5 6.3 6.6 6.0
1.0 0.9 0.9 1.6 1.9 1.6 2.8 3.6 4.0 4.1 3.2 3.0 3.1 3.3 4.1 4.7 10.0 9.2 7.7 5.9 4.0 2.5 2.6 2.4 3.9 2.2 2.0 3.1 1.9 1.8 2.3 2.9 4.2 5.1 6.0 7.7 6.1 5.2 3.3 2.7 2.6 2.4 2.3 2.5 2.3 2.7 3.6 4.3 5.5 5.2 6.7 6.7 7.1 7.1
0.6 0.5 0.5 0.2 0.5 0.7 4.2 2.0 2.6 2.2 0.5 1.4 1.0 0.9 1.2 7.9 11.7 8.3 6.8 5.0 4.6 5.6 6.8 5.2 4.7 2.6 3.9 1.8 4.3 2.8 3.4 3.7 4.4 5.9 7.4 7.0 6.7 5.1 2.8 2.4 1.9 2.1 2.1 2.5 2.7 2.7 2.7 2.4 3.2 3.4 4.6 5.1 7.0 8.0
0.8 1.6 2.2 1.6 2.2 3.5 2.8 1.3 1.6 1.8 2.2 2.3 2.4 2.4 4.1 6.2 8.7 5.4 5.6 7.8 4.8 3.8 3.0 3.4 3.6 4.4 4.2 4.2 5.0 4.5 6.2 5.0 4.9 5.3 6.1 6.5 4.9 3.4 2.7 2.1 2.2 1.9 2.1 1.9 2.3 2.5 3.3 3.3 4.7 5.5 4.7 5.1 5.5 6.3
2.1 3.4 3.8 3.6 4.4 3.4 3.8 5.6 3.6 4.2 3.6 3.7 4.0 2.1 4.6 4.9 3.7 6.3 4.8 4.9 5.2 5.3 5.1 5.6 5.9 7.1 7.0 8.0 7.2 6.9 6.4 5.4 4.5 4.0 3.9 3.8 3.9 3.1 2.4 1.7 2.2 2.5 2.4 2.2 2.4 2.3 2.7 3.9 4.9 5.4 6.0 5.4 5.8 5.6
2.3 2.7 2.8 3.8 3.6 4.5 4.5 5.8 4.9 5.7 4.9 4.6 5.2 5.5 5.8 4.5 5.8 8.8 4.2 4.8 10.6 11.1 9.2 8.6 9.0 8.9 9.2 7.5 6.3 6.3 5.8 5.1 4.0 3.2 3.1 2.5 2.0 1.6 1.4 1.9 1.9 2.5 2.7 2.9 3.0 2.9 3.1 3.0 3.6 3.7 3.5 3.8 3.8 3.4

GFSWCAN_prec_kuchsnow_225.txt.gz
Snowfall_Accumulation
0.0 0.0 0.0 0.0 0.0 0.0 0.0 0.0 0.0 0.0 0.0 0.0 0.0 0.0 0.0 0.0 0.0 0.0 0.0 0.0 0.0 14.8 3.1 0.0 0.0 0.4 0.5 0.2 1.8 3.3 3.5 5.7 5.1 9.4 10.7 13.1 9.7 2.3 1.2 0.9 3.5 2.0 7.2 9.3 8.6 17.9 15.8 0.0 0.0 1.5 2.3 0.4 0.2 0.2
0.0 0.0 0.0 0.0 0.0 0.0 0.0 0.0 0.0 0.0 0.0 0.0 0.0 0.0 0.0 0.0 0.0 0.0 0.0 0.0 0.0 0.8 4.5 0.0 0.0 0.0 0.0 0.0 0.0 0.0 0.6 0.4 0.6 5.2 3.4 3.1 12.0 5.7 3.3 6.3 0.0 9.1 2.1 5.8 5.7 5.7 1.0 0.1 0.8 0.5 0.3 0.2 0.2 0.0
0.0 0.0 0.0 0.0 0.0 0.0 0.0 0.0 0.0 0.0 0.0 0.0 0.0 0.0 0.0 0.0 0.0 0.0 0.0 0.0 0.0 7.0 6.4 0.0 1.9 0.0 0.0 0.0 0.0 1.1 0.0 0.0 0.0 0.0 1.5 4.2 10.2 1.9 8.3 3.2 2.4 2.2 0.9 5.2 2.6 1.9 0.4 0.1 0.1 0.1 0.1 0.1 0.0 0.1
0.0 0.0 0.0 0.0 0.0 0.0 0.0 0.0 0.0 0.0 0.0 0.0 0.0 0.0 0.0 0.0 0.0 0.0 0.0 0.0 0.0 0.1 15.6 8.9 0.0 0.0 0.0 0.0 0.0 0.0 0.0 0.0 0.0 0.0 11.1 13.8 11.6 0.0 3.2 0.4 0.7 0.7 2.0 6.5 5.3 2.5 1.3 0.6 0.6 0.8 0.2 0.0 0.0 0.0
0.0 0.0 0.0 0.0 0.0 0.0 0.0 0.0 0.0 0.0 0.0 0.0 0.0 0.0 0.0 0.0 0.0 0.0 0.0 0.0 0.0 0.0 12.0 5.6 0.3 0.0 0.0 0.0 0.0 0.0 0.0 0.0 2.6 12.5 16.9 12.2 3.8 3.4 3.0 2.3 3.9 1.1 5.7 5.3 15.0 6.7 3.6 3.3 2.2 1.4 1.1 0.1 0.1 0.0
0.0 0.0 0.0 0.0 0.0 0.0 0.0 0.0 0.0 0.0 0.0 0.0 0.0 0.0 0.0 0.0 0.0 0.0 14.4 0.0 0.0 0.0 3.4 8.9 1.3 1.2 0.0 0.0 0.0 0.0 0.0 0.0 2.2 8.6 10.5 6.0 0.0 0.7 8.7 5.0 1.0 1.1 1.5 2.2 5.5 5.4 3.8 3.7 2.7 1.9 1.8 1.3 0.1 0.0
0.0 0.0 0.0 0.0 0.0 0.0 0.0 0.0 0.0 0.0 0.0 0.0 0.0 0.0 0.0 0.0 0.0 0.0 4.9 0.0 0.0 0.0 5.1 13.9 4.1 1.4 0.0 0.0 0.0 0.0 0.0 0.4 1.4 4.6 6.8 2.3 0.6 0.5 7.6 7.0 1.2 1.4 1.5 1.8 1.7 1.9 3.6 3.4 3.8 1.7 0.9 0.9 0.5 0.4
0.0 0.0 0.0 0.0 0.0 0.0 0.0 0.0 0.0 0.0 0.0 0.0 0.0 0.0 0.0 0.0 0.0 0.2 0.0 0.0 0.0 0.0 0.4 16.1 8.4 2.6 0.0 1.6 2.5 0.0 0.9 1.9 4.8 4.4 4.3 2.4 1.6 3.6 14.3 0.4 0.3 0.7 0.4 1.4 1.1 0.5 1.3 1.3 1.1 1.0 0.7 0.6 0.6 0.5
0.0 0.0 0.0 0.0 0.0 0.0 0.0 0.0 0.0 0.0 0.0 0.0 0.0 0.0 0.0 0.0 14.6 1.3 0.0 0.0 0.0 0.0 17.4 6.9 4.7 10.8 0.0 1.1 0.6 1.5 0.8 12.2 2.0 5.1 1.1 0.4 6.4 15.5 7.1 1.2 0.8 0.6 0.7 0.6 0.4 0.1 0.2 0.8 1.0 0.8 1.0 0.8 0.5 1.5
0.0 0.0 0.0 0.0 0.0 0.0 0.0 0.0 0.0 0.0 0.0 0.0 0.0 8.8 52.8 7.6 0.0 0.0 0.0 13.4 14.0 12.0 5.5 5.9 0.2 5.7 0.0 3.8 5.9 4.8 5.6 7.5 10.8 2.2 0.2 6.8 6.3 4.7 2.3 1.1 0.4 1.3 0.2 0.2 0.5 0.6 0.1 0.3 0.4 0.5 0.5 0.2 0.3 0.5
0.0 0.0 0.0 0.0 0.0 0.0 0.0 0.0 0.0 0.0 0.0 0.0 18.3 23.4 1.9 0.0 0.0 7.4 27.2 23.2 13.7 14.2 2.8 0.9 0.4 1.9 0.1 9.6 10.4 3.9 11.1 4.2 7.8 2.3 3.3 7.8 5.7 4.8 2.3 2.8 1.9 1.8 0.9 0.9 0.7 0.2 0.0 0.1 0.6 0.5 0.4 0.8 0.4 0.4
0.0 0.0 0.0 0.0 0.0 0.0 0.0 0.0 0.0 0.0 0.0 0.0 0.0 0.0 0.6 4.7 15.8 21.8 17.0 9.4 3.2 3.3 2.7 2.6 2.3 1.4 3.3 1.5 9.6 11.0 14.5 9.3 10.0 2.7 14.5 7.7 7.6 3.0 2.1 2.0 1.9 2.4 2.3 1.4 0.5 2.1 2.2 1.2 0.8 0.3 0.3 0.6 0.5 0.6
0.0 0.0 0.0 0.0 0.0 0.0 0.0 0.0 0.0 0.0 0.0 0.0 3.2 19.2 23.1 22.9 28.3 17.1 9.8 4.0 2.8 1.6 2.1 2.1 5.2 2.0 1.7 1.0 11.4 10.6 13.0 14.1 3.8 19.3 12.1 6.9 3.2 1.4 1.0 0.7 1.0 1.4 1.7 2.0 2.2 1.8 2.1 3.8 4.1 3.9 4.4 6.5 6.5 8.8
0.0 0.0 0.0 0.0 0.0 0.0 0.0 0.0 0.0 0.0 0.0 10.6 15.8 27.6 24.0 20.2 11.0 8.7 3.5 3.2 2.2 2.5 2.6 3.4 7.2 6.7 4.3 9.2 12.1 20.0 9.5 7.2 16.3 18.2 8.9 9.8 8.1 4.9 2.2 1.5 1.4 3.3 3.8 3.5 4.6 5.7 6.4 8.2 10.9 12.4 13.3 14.6 13.3 15.4
0.0 0.0 0.0 0.0 0.0 0.0 0.0 0.0 0.0 0.0 3.6 14.1 12.1 19.5 11.3 11.8 6.9 6.3 4.8 3.0 3.2 4.0 7.5 10.6 11.1 8.2 9.8 14.1 9.4 10.3 14.1 11.7 9.1 9.8 14.7 12.3 7.8 3.8 3.5 2.8 3.2 5.0 6.0 7.2 7.6 7.8 9.1 8.7 7.5 11.0 12.3 12.0 10.0 11.4
0.0 0.0 0.0 0.0 0.0 0.0 0.0 0.0 0.5 1.0 4.4 6.1 8.2 9.5 6.8 9.1 10.2 8.4 7.4 7.5 2.9 6.5 4.0 9.3 16.4 19.1 17.1 11.2 12.6 9.8 7.5 9.2 13.7 10.2 9.3 5.4 5.0 4.7 5.0 5.3 7.1 8.0 8.3 8.7 8.7 7.8 7.9 7.9 6.8 8.6 9.0 8.5 9.3 7.9
0.0 0.9 0.0 0.0 0.0 0.0 0.0 1.3 1.9 4.1 4.8 4.8 9.5 9.0 8.4 9.3 12.6 10.6 9.0 7.3 3.7 8.8 10.3 6.0 12.6 14.7 8.9 9.4 11.5 9.0 14.9 14.1 13.1 11.1 6.8 5.3 5.9 7.2 8.0 8.8 9.8 9.6 9.3 8.3 8.0 7.7 8.4 7.7 6.2 4.7 7.0 10.1 7.7 7.5
0.2 0.0 0.0 0.0 0.0 0.0 1.6 1.2 1.8 2.2 3.6 6.4 10.2 12.1 8.7 12.5 12.6 9.7 8.6 6.6 7.8 7.2 4.7 10.1 2.3 5.3 6.9 8.0 9.1 13.8 13.4 10.7 7.6 7.9 9.4 9.6 9.0 9.2 9.7 11.3 11.8 10.3 9.2 9.7 8.9 8.6 8.7 8.5 6.9 8.7 8.0 8.2 6.3 6.7
0.1 0.0 0.0 0.0 0.0 1.2 4.4 3.6 1.0 3.8 7.4 6.3 8.1 6.5 6.0 8.4 8.0 8.6 7.3 5.8 7.6 6.2 7.0 7.8 8.0 8.0 12.0 12.4 13.2 11.7 10.8 8.1 10.4 11.7 12.2 12.0 11.5 11.4 12.5 11.4 11.7 11.7 10.7 11.4 9.6 9.1 9.5 8.8 7.7 7.3 6.8 6.0 6.0 5.7
0.0 0.0 0.0 0.0 0.0 0.8 2.1 1.5 0.3 0.2 5.0 5.9 4.9 4.3 3.5 6.1 4.0 2.7 1.8 3.0 4.8 9.7 11.7 11.0 15.7 19.1 18.4 17.4 14.7 12.9 12.1 7.9 7.3 7.7 12.2 13.7 14.2 11.5 12.7 10.6 10.7 10.5 8.9 9.3 9.2 8.4 7.1 6.6 6.6 5.7 4.5 3.0 3.5 3.8
0.0 0.0 0.0 0.0 0.1 0.1 0.3 1.1 1.8 0.5 1.0 2.8 1.2 0.5 2.6 0.4 0.4 0.5 0.3 1.1 6.5 12.2 17.4 20.3 20.3 19.6 18.1 16.8 12.6 10.3 10.6 7.7 9.3 6.9 9.1 12.9 13.9 9.0 10.4 10.8 9.3 8.3 7.7 8.7 8.2 8.9 6.7 6.4 4.8 3.8 4.4 5.0 3.9 4.4
0.0 0.0 0.9 0.0 1.8 0.9 0.9 0.0 0.1 0.5 0.6 0.9 0.6 0.7 1.1 1.7 0.8 0.8 0.2 1.4 9.6 14.4 15.2 15.4 15.1 13.7 12.2 14.1 14.9 11.2 12.2 8.1 7.2 6.6 7.9 6.7 10.1 10.0 11.3 11.8 8.9 9.4 8.9 8.8 6.5 5.7 4.7 3.7 3.3 3.3 3.9 4.7 4.7 5.8
0.0 1.0 3.5 2.6 3.6 1.0 0.7 0.1 0.5 0.2 0.6 0.8 0.4 0.8 0.9 2.1 1.7 0.3 1.3 2.2 10.0 12.5 9.5 7.7 9.3 8.9 9.9 12.7 8.3 9.0 10.1 7.6 7.9 8.5 9.0 8.9 8.7 8.8 7.7 8.2 6.9 5.5 5.5 6.0 4.4 4.6 5.2 4.3 3.8 4.2 4.3 4.1 5.9 5.9
0.0 4.4 6.5 4.3 2.7 3.3 1.0 2.1 0.8 0.3 0.2 0.5 0.9 0.7 1.1 1.0 0.2 0.8 2.7 6.6 10.9 6.2 5.1 7.2 5.6 5.6 5.3 5.2 7.5 9.1 10.9 7.0 6.6 7.0 7.4 4.5 4.2 5.2 3.4 4.1 4.3 4.6 5.3 4.5 3.8 4.5 4.4 5.4 5.6 5.0 4.8 5.5 6.4 5.6
4.1 3.1 3.9 3.4 1.5 1.5 0.6 0.7 1.1 0.6 0.4 0.2 0.4 0.9 1.1 0.0 0.9 1.1 2.6 8.4 7.0 6.5 6.0 4.8 3.0 3.1 5.0 7.4 8.5 8.1 5.7 3.5 3.6 4.4 5.3 3.2 3.4 3.5 3.3 3.3 3.5 4.1 3.6 3.6 3.8 5.1 5.7 5.2 5.5 5.0 5.0 5.1 6.0 5.9
3.0 0.8 1.2 1.3 1.2 0.9 0.2 0.5 0.5 0.9 0.4 0.7 1.6 1.0 0.4 0.9 1.2 3.3 5.7 9.3 7.7 7.2 7.6 7.2 5.5 3.3 3.1 3.1 3.8 3.4 3.6 2.5 1.9 2.7 3.6 2.4 2.9 3.9 3.7 3.7 3.5 3.8 2.9 4.5 5.4 6.1 4.9 4.2 4.7 4.3 5.4 5.0 5.9 6.0
1.9 1.5 0.5 0.0 1.7 2.5 2.6 1.5 1.5 2.0 2.1 2.6 2.4 1.8 2.5 3.2 4.4 7.3 7.2 6.8 5.8 6.2 4.5 3.9 2.4 2.3 2.9 3.0 1.7 1.6 1.3 0.9 1.2 2.8 3.3 2.8 2.6 3.0 3.7 6.1 6.6 6.4 3.8 4.3 4.8 5.2 5.5 5.4 5.5 5.1 5.4 6.1 5.7 6.3
0.3 0.5 1.3 2.1 3.0 3.1 4.9 3.9 3.6 4.2 4.1 3.3 3.1 3.4 3.4 4.2 7.4 8.8 7.7 6.5 5.4 2.9 2.0 1.6 1.6 1.8 2.1 2.6 2.6 2.2 1.9 1.6 1.8 2.3 2.6 2.5 2.2 3.4 3.9 3.4 3.3 2.6 2.8 3.5 3.7 3.6 4.1 4.9 6.1 6.1 6.5 6.3 6.6 6.0
1.0 0.9 0.9 1.6 1.9 1.6 2.8 3.6 4.0 4.1 3.2 3.0 3.1 3.3 4.1 4.7 10.0 9.2 7.7 5.9 4.0 2.5 2.6 2.4 3.9 2.2 2.0 3.1 1.9 1.8 2.3 2.9 4.2 5.1 6.0 7.7 6.1 5.2 3.3 2.7 2.6 2.4 2.3 2.5 2.3 2.7 3.6 4.3 5.5 5.2 6.7 6.7 7.1 7.1
0.6 0.5 0.5 0.2 0.5 0.7 4.2 2.0 2.6 2.2 0.5 1.4 1.0 0.9 1.2 7.9 11.7 8.3 6.8 5.0 4.6 5.6 6.8 5.2 4.7 2.6 3.9 1.8 4.3 2.8 3.4 3.7 4.4 5.9 7.4 7.0 6.7 5.1 2.8 2.4 1.9 2.1 2.1 2.5 2.7 2.8 2.8 2.4 3.2 3.4 4.6 5.1 7.0 8.0
0.8 1.6 2.2 1.6 2.2 3.5 2.8 1.3 1.6 1.8 2.2 2.3 2.4 2.4 4.1 6.2 8.7 5.4 5.6 7.8 4.8 3.8 3.0 3.4 3.6 4.4 4.2 4.2 5.0 4.5 6.2 5.0 4.9 5.3 6.1 6.5 4.9 3.4 2.7 2.1 2.2 1.9 2.1 1.9 2.3 2.5 3.3 3.3 4.7 5.5 4.7 5.1 5.5 6.3
2.1 3.4 3.8 3.6 4.4 3.4 3.8 5.6 3.6 4.2 3.6 3.7 4.0 2.1 4.6 4.9 3.7 6.3 4.8 4.9 5.2 5.3 5.1 5.6 5.9 7.1 7.0 8.0 7.2 6.9 6.4 5.4 4.5 4.0 3.9 3.8 3.9 3.1 2.4 1.7 2.2 2.5 2.4 2.2 2.4 2.3 2.7 3.9 4.9 5.4 6.0 5.4 5.8 5.6
2.3 2.7 2.9 3.9 3.9 4.5 4.5 5.8 4.9 5.7 4.9 4.6 5.2 5.5 5.8 4.5 5.8 8.8 4.2 4.8 10.6 11.1 9.2 8.6 9.0 8.9 9.2 7.5 6.3 6.3 5.8 5.1 4.0 3.2 3.1 2.5 2.0 1.6 1.4 1.9 1.9 2.5 2.7 2.9 3.0 2.9 3.1 3.0 3.6 3.7 3.5 3.8 3.8 3.4

GFSWCAN_prec_kuchsnow_228.txt.gz
Snowfall_Accumulation
0.0 0.0 0.0 0.0 0.0 0.0 0.0 0.0 0.0 0.0 0.0 0.0 0.0 0.0 0.0 0.0 0.0 0.0 0.0 0.0 0.0 14.8 3.1 0.0 0.0 0.4 0.5 0.2 1.8 3.3 3.5 5.7 5.1 9.4 10.7 13.1 9.7 2.3 1.2 0.9 3.5 2.0 7.2 9.3 8.6 17.9 15.8 0.0 0.0 1.5 2.3 0.4 0.2 0.2
0.0 0.0 0.0 0.0 0.0 0.0 0.0 0.0 0.0 0.0 0.0 0.0 0.0 0.0 0.0 0.0 0.0 0.0 0.0 0.0 0.0 0.8 4.5 0.0 0.0 0.0 0.0 0.0 0.0 0.0 0.6 0.4 0.6 5.2 3.4 3.1 12.0 5.7 3.3 6.3 0.0 9.1 2.1 5.8 5.7 5.7 1.0 0.1 0.8 0.5 0.3 0.2 0.2 0.0
0.0 0.0 0.0 0.0 0.0 0.0 0.0 0.0 0.0 0.0 0.0 0.0 0.0 0.0 0.0 0.0 0.0 0.0 0.0 0.0 0.0 7.0 6.4 0.0 1.9 0.0 0.0 0.0 0.0 1.1 0.0 0.0 0.0 0.0 2.8 4.2 12.5 1.9 8.3 3.2 2.4 2.2 0.9 5.2 2.6 1.9 0.4 0.1 0.1 0.1 0.1 0.1 0.0 0.1
0.0 0.0 0.0 0.0 0.0 0.0 0.0 0.0 0.0 0.0 0.0 0.0 0.0 0.0 0.0 0.0 0.0 0.0 0.0 0.0 0.0 0.1 15.6 8.9 0.0 0.0 0.0 0.0 0.0 0.0 0.0 0.0 0.0 0.0 12.6 15.8 13.5 0.8 3.9 0.4 0.7 0.7 2.0 6.5 5.3 2.5 1.3 0.6 0.6 0.8 0.2 0.0 0.0 0.0
0.0 0.0 0.0 0.0 0.0 0.0 0.0 0.0 0.0 0.0 0.0 0.0 0.0 0.0 0.0 0.0 0.0 0.0 0.0 0.0 0.0 0.0 12.0 5.6 0.3 0.0 0.0 0.0 0.0 0.0 0.0 0.0 2.8 13.4 18.2 13.2 4.2 3.9 3.6 2.9 4.3 1.1 5.7 5.3 15.0 6.7 3.6 3.3 2.2 1.4 1.1 0.1 0.1 0.0
0.0 0.0 0.0 0.0 0.0 0.0 0.0 0.0 0.0 0.0 0.0 0.0 0.0 0.0 0.0 0.0 0.0 0.0 16.2 0.0 0.0 0.0 3.4 8.9 1.3 1.2 0.0 0.0 0.0 0.0 0.0 0.0 2.2 9.0 10.9 6.4 0.0 0.7 9.1 5.3 1.0 1.1 1.5 2.2 5.5 5.4 3.8 3.7 2.7 1.9 1.8 1.3 0.1 0.0
0.0 0.0 0.0 0.0 0.0 0.0 0.0 0.0 0.0 0.0 0.0 0.0 0.0 0.0 0.0 0.0 0.0 0.0 5.1 0.0 0.0 0.0 5.1 13.9 4.1 1.4 0.0 0.0 0.0 0.0 0.0 0.4 1.4 4.6 7.1 2.4 0.7 0.5 8.6 7.4 1.2 1.4 1.5 1.8 1.7 1.9 3.6 3.4 3.8 1.7 0.9 0.9 0.5 0.4
0.0 0.0 0.0 0.0 0.0 0.0 0.0 0.0 0.0 0.0 0.0 0.0 0.0 0.0 0.0 0.0 0.0 0.2 0.0 0.0 0.0 0.0 0.4 16.3 8.5 2.6 0.0 1.6 2.5 0.0 0.9 1.9 5.0 4.4 4.6 2.4 1.7 4.0 15.4 0.4 0.3 0.7 0.4 1.4 1.1 0.5 1.3 1.3 1.1 1.0 0.7 0.6 0.6 0.5
0.0 0.0 0.0 0.0 0.0 0.0 0.0 0.0 0.0 0.0 0.0 0.0 0.0 0.0 0.0 0.0 15.7 1.3 0.0 0.0 0.0 0.0 17.5 6.9 4.7 10.8 0.0 1.1 0.6 1.5 0.8 12.4 2.0 5.6 1.3 0.5 6.8 16.0 7.1 1.2 0.8 0.6 0.7 0.6 0.4 0.1 0.2 0.8 1.0 0.8 1.0 0.8 0.5 1.5
0.0 0.0 0.0 0.0 0.0 0.0 0.0 0.0 0.0 0.0 0.0 0.0 0.0 8.8 53.9 7.6 0.0 0.0 0.0 14.5 15.5 12.8 5.5 5.9 0.2 5.7 0.0 3.8 5.9 4.9 5.7 7.7 11.2 2.3 0.2 7.1 6.3 4.7 2.3 1.1 0.4 1.3 0.2 0.2 0.5 0.6 0.1 0.3 0.4 0.5 0.5 0.2 0.3 0.5
0.0 0.0 0.0 0.0 0.0 0.0 0.0 0.0 0.0 0.0 0.0 0.0 18.3 24.0 1.9 0.0 0.0 7.7 28.3 24.3 14.9 14.6 2.8 0.9 0.4 1.9 0.1 9.6 10.4 3.9 11.2 4.3 8.1 2.4 3.5 7.8 5.7 4.8 2.3 2.8 1.9 1.8 0.9 0.9 0.7 0.2 0.0 0.1 0.6 0.5 0.4 0.8 0.4 0.8
0.0 0.0 0.0 0.0 0.0 0.0 0.0 0.0 0.0 0.0 0.0 0.0 0.0 0.0 0.6 4.7 15.8 22.1 17.2 9.4 3.2 3.3 2.7 2.6 2.3 1.4 3.3 1.5 9.6 11.2 14.8 9.5 10.1 2.7 14.5 7.7 7.6 3.0 2.1 2.0 1.9 2.4 2.3 1.4 0.5 2.1 2.2 1.2 0.8 0.3 0.3 0.9 0.7 0.7
0.0 0.0 0.0 0.0 0.0 0.0 0.0 0.0 0.0 0.0 0.0 0.0 3.2 19.2 23.1 22.9 28.3 17.1 9.8 4.0 2.8 1.6 2.1 2.1 5.3 2.0 1.8 1.0 11.4 10.7 13.2 14.4 3.8 19.4 12.1 6.9 3.2 1.4 1.0 0.7 1.0 1.4 1.7 2.0 2.2 1.8 2.1 3.9 4.3 4.2 5.1 7.2 7.0 8.9
0.0 0.0 0.0 0.0 0.0 0.0 0.0 0.0 0.0 0.0 0.0 10.6 15.8 27.6 24.0 20.2 11.0 8.7 3.5 3.2 2.2 2.5 2.6 3.4 7.2 6.8 4.4 9.4 12.3 20.2 9.5 7.2 16.4 18.3 8.9 9.8 8.1 4.9 2.2 1.5 1.4 3.3 3.8 3.5 4.6 5.8 6.4 8.3 11.2 12.7 13.6 14.8 13.4 15.4
0.0 0.0 0.0 0.0 0.0 0.0 0.0 0.0 0.0 0.0 3.6 14.1 12.1 19.5 11.3 11.8 6.9 6.3 4.8 3.0 3.2 4.0 7.5 10.6 11.1 8.2 9.9 14.3 9.5 10.3 14.2 11.8 9.1 9.8 14.7 12.3 7.8 3.8 3.5 2.8 3.2 5.1 6.1 7.2 7.6 7.8 9.1 8.7 7.5 11.0 12.3 12.0 10.0 11.4
0.0 0.0 0.0 0.0 0.0 0.0 0.0 0.0 0.5 1.0 4.4 6.1 8.2 9.5 6.8 9.1 10.2 8.4 7.4 7.5 2.9 6.5 4.0 9.3 16.4 19.1 17.2 11.3 12.7 9.8 7.5 9.2 13.7 10.2 9.3 5.4 5.0 4.7 5.0 5.4 7.3 8.1 8.3 8.7 8.7 7.8 7.9 7.9 6.8 8.6 9.0 8.5 9.3 7.9
0.0 0.9 0.0 0.0 0.0 0.0 0.0 1.3 1.9 4.1 4.8 4.8 9.5 9.0 8.4 9.3 12.6 10.6 9.0 7.3 3.7 8.8 10.3 6.0 12.6 14.7 8.9 9.4 11.5 9.0 14.9 14.1 13.1 11.1 6.8 5.3 5.9 7.2 8.1 9.0 10.3 10.2 9.3 8.3 8.0 7.7 8.4 7.7 6.2 4.7 7.0 10.1 7.7 7.5
0.2 0.0 0.0 0.0 0.0 0.0 1.6 1.2 1.8 2.2 3.6 6.4 10.2 12.1 8.7 12.5 12.6 9.7 8.6 6.6 7.8 7.2 4.7 10.1 2.3 5.3 6.9 8.0 9.1 13.8 13.4 10.7 7.6 7.9 9.4 9.6 9.0 9.2 9.7 11.3 11.8 10.3 9.2 9.7 8.9 8.6 8.7 8.5 6.9 8.7 8.0 8.2 6.3 6.7
0.1 0.0 0.0 0.0 0.0 1.2 4.4 3.6 1.0 3.8 7.4 6.3 8.1 6.5 6.0 8.4 8.0 8.6 7.3 5.8 7.6 6.2 7.0 7.8 8.0 8.0 12.0 12.4 13.2 11.7 10.8 8.1 10.4 11.7 12.2 12.0 11.5 11.4 12.5 11.4 11.7 11.7 10.7 11.4 9.6 9.1 9.5 8.8 7.7 7.3 6.8 6.0 6.0 5.7
0.0 0.0 0.0 0.0 0.0 0.8 2.1 1.5 0.3 0.2 5.0 5.9 4.9 4.3 3.5 6.1 4.0 2.7 1.9 3.1 5.0 10.0 12.0 11.3 15.7 19.1 18.4 17.4 14.7 12.9 12.1 7.9 7.3 7.7 12.2 13.8 14.3 11.5 12.7 10.6 10.7 10.5 8.9 9.3 9.2 8.4 7.1 6.6 6.6 5.7 4.5 3.0 3.5 3.8
0.0 0.0 0.0 0.0 0.1 0.1 0.3 1.1 1.8 0.5 1.0 2.8 1.2 0.5 2.7 0.4 0.4 0.5 0.4 1.2 6.8 12.4 17.5 20.3 20.3 19.6 18.1 16.8 12.6 10.3 10.6 7.7 9.3 6.9 9.1 12.9 13.9 9.0 10.4 10.8 9.3 8.3 7.7 8.7 8.2 8.9 6.7 6.4 4.8 3.8 4.4 5.0 3.9 4.4
0.0 0.0 0.9 0.0 1.8 0.9 0.9 0.0 0.1 0.5 0.6 0.9 0.6 0.7 1.4 1.9 0.9 0.9 0.2 1.6 9.7 14.4 15.2 15.4 15.1 13.7 12.2 14.1 14.9 11.2 12.2 8.1 7.2 6.6 7.9 6.7 10.1 10.0 11.3 11.8 8.9 9.4 8.9 8.8 6.5 5.7 4.7 3.7 3.3 3.3 3.9 4.7 4.7 5.8
0.0 1.0 3.5 2.6 3.6 1.0 0.7 0.1 0.5 0.2 0.6 0.8 0.5 0.8 0.9 2.1 1.7 0.3 1.3 2.2 10.0 12.5 9.5 7.7 9.3 8.9 9.9 12.7 8.3 9.0 10.1 7.6 7.9 8.5 9.0 8.9 8.7 8.8 7.7 8.2 6.9 5.5 5.5 6.0 4.4 4.6 5.2 4.3 3.8 4.2 4.3 4.1 5.9 5.9
0.0 4.4 6.5 4.3 2.7 3.3 1.0 2.1 0.8 0.3 0.2 0.5 0.9 0.7 1.1 1.0 0.2 0.8 2.7 6.6 10.9 6.2 5.1 7.2 5.6 5.6 5.3 5.2 7.5 9.1 10.9 7.0 6.6 7.0 7.4 4.5 4.2 5.2 3.4 4.1 4.3 4.6 5.3 4.5 3.8 4.5 4.4 5.4 5.6 5.0 4.8 5.5 6.4 5.6
4.1 3.1 3.9 3.4 1.5 1.5 0.6 0.7 1.1 0.6 0.4 0.2 0.4 0.9 1.1 0.0 0.9 1.1 2.6 8.4 7.0 6.5 6.0 4.8 3.0 3.1 5.0 7.4 8.5 8.1 5.7 3.5 3.6 4.4 5.3 3.2 3.4 3.5 3.3 3.3 3.5 4.1 3.6 3.6 3.8 5.1 5.7 5.2 5.5 5.0 5.0 5.1 6.0 5.9
3.0 0.8 1.2 1.3 1.2 0.9 0.2 0.5 0.5 0.9 0.4 0.7 1.6 1.0 0.4 0.9 1.2 3.3 5.7 9.3 7.7 7.2 7.6 7.2 5.5 3.3 3.1 3.1 3.8 3.4 3.6 2.5 1.9 2.7 3.6 2.4 2.9 3.9 3.7 3.7 3.5 3.8 2.9 4.5 5.4 6.1 4.9 4.2 4.7 4.3 5.4 5.0 5.9 6.0
1.9 1.5 0.5 0.0 1.7 2.5 2.6 1.5 1.5 2.0 2.1 2.6 2.4 1.8 2.5 3.2 4.4 7.3 7.2 6.8 5.8 6.2 4.5 3.9 2.4 2.3 2.9 3.0 1.7 1.6 1.3 0.9 1.2 2.8 3.3 2.8 2.6 3.0 3.7 6.1 6.6 6.4 3.8 4.3 4.8 5.2 5.5 5.4 5.5 5.1 5.4 6.1 5.7 6.3
0.3 0.5 1.3 2.1 3.0 3.1 4.9 3.9 3.6 4.2 4.1 3.3 3.1 3.4 3.4 4.2 7.4 8.8 7.7 6.5 5.4 2.9 2.0 1.6 1.6 1.8 2.1 2.6 2.6 2.2 1.9 1.6 1.8 2.3 2.6 2.5 2.2 3.4 3.9 3.4 3.3 2.6 2.8 3.5 3.7 3.6 4.1 4.9 6.1 6.1 6.5 6.3 6.6 6.0
1.1 0.9 0.9 1.6 1.9 1.6 2.8 3.6 4.0 4.1 3.2 3.0 3.1 3.3 4.1 4.7 10.0 9.2 7.7 5.9 4.0 2.5 2.6 2.4 4.0 2.2 2.0 3.1 1.9 1.8 2.3 2.9 4.2 5.1 6.0 7.7 6.1 5.2 3.3 2.7 2.6 2.4 2.3 2.5 2.3 2.7 3.6 4.3 5.5 5.2 6.7 6.7 7.1 7.1
0.6 0.5 0.5 0.2 0.5 0.7 4.2 2.0 2.6 2.2 0.5 1.4 1.0 0.9 1.2 7.9 11.7 8.3 6.8 5.0 4.6 5.6 6.8 5.2 4.7 2.6 3.9 1.8 4.3 2.8 3.4 3.7 4.4 5.9 7.4 7.0 6.7 5.1 2.8 2.4 1.9 2.1 2.1 2.5 2.7 2.8 2.8 2.4 3.2 3.4 4.6 5.1 7.0 8.1
0.8 1.6 2.2 1.6 2.2 3.5 2.8 1.3 1.6 1.8 2.2 2.3 2.4 2.4 4.1 6.2 8.7 5.4 5.6 7.8 4.8 3.8 3.0 3.5 3.6 4.4 4.2 4.2 5.0 4.5 6.2 5.0 4.9 5.3 6.1 6.5 4.9 3.4 2.7 2.1 2.2 1.9 2.1 1.9 2.3 2.5 3.3 3.3 4.7 5.5 4.7 5.1 5.5 6.3
2.1 3.5 3.8 3.6 4.4 3.4 3.8 5.6 3.6 4.2 3.6 3.7 4.0 2.1 4.6 4.9 3.7 6.3 4.8 4.9 5.2 5.3 5.1 5.6 5.9 7.1 7.0 8.0 7.2 6.9 6.4 5.4 4.5 4.0 3.9 3.8 3.9 3.1 2.4 1.7 2.2 2.5 2.4 2.2 2.4 2.3 2.7 3.9 4.9 5.4 6.0 5.4 5.8 5.6
2.4 2.7 3.0 3.9 3.9 4.6 4.5 5.9 4.9 5.7 4.9 4.6 5.2 5.5 5.8 4.5 5.8 8.8 4.2 4.8 10.6 11.1 9.2 8.6 9.0 8.9 9.2 7.5 6.3 6.3 5.8 5.1 4.0 3.2 3.1 2.5 2.0 1.6 1.4 1.9 1.9 2.5 2.7 2.9 3.0 2.9 3.1 3.0 3.6 3.7 3.5 3.8 3.8 3.4

GFSWCAN_prec_kuchsnow_231.txt.gz
Snowfall_Accumulation
0.0 0.0 0.0 0.0 0.0 0.0 0.0 0.0 0.0 0.0 0.0 0.0 0.0 0.0 0.0 0.0 0.0 0.0 0.0 0.0 0.0 14.8 3.1 0.0 0.0 0.4 0.5 0.2 1.8 3.3 3.5 5.7 5.1 9.4 10.7 13.1 9.7 2.3 1.2 0.9 3.5 2.0 7.2 9.3 8.6 18.1 15.8 0.0 0.0 1.5 2.3 0.4 0.2 0.2
0.0 0.0 0.0 0.0 0.0 0.0 0.0 0.0 0.0 0.0 0.0 0.0 0.0 0.0 0.0 0.0 0.0 0.0 0.0 0.0 0.0 0.8 4.5 0.0 0.0 0.0 0.0 0.0 0.0 0.0 0.6 0.4 0.6 5.2 3.4 3.1 12.0 5.7 3.3 6.3 0.0 9.1 2.1 5.8 5.7 5.7 1.0 0.1 0.8 0.5 0.3 0.2 0.2 0.0
0.0 0.0 0.0 0.0 0.0 0.0 0.0 0.0 0.0 0.0 0.0 0.0 0.0 0.0 0.0 0.0 0.0 0.0 0.0 0.0 0.0 7.0 6.4 0.0 1.9 0.0 0.0 0.0 0.0 1.1 0.0 0.0 0.0 0.0 2.8 5.3 14.0 2.6 8.3 3.2 2.4 2.2 0.9 5.2 2.6 1.9 0.4 0.1 0.1 0.1 0.1 0.1 0.0 0.1
0.0 0.0 0.0 0.0 0.0 0.0 0.0 0.0 0.0 0.0 0.0 0.0 0.0 0.0 0.0 0.0 0.0 0.0 0.0 0.0 0.0 0.1 15.7 8.9 0.0 0.0 0.0 0.0 0.0 0.0 0.0 0.0 0.0 0.0 13.8 17.0 14.7 1.7 4.6 1.1 1.1 0.7 2.0 6.5 5.3 2.5 1.3 0.6 0.6 0.8 0.2 0.0 0.0 0.0
0.0 0.0 0.0 0.0 0.0 0.0 0.0 0.0 0.0 0.0 0.0 0.0 0.0 0.0 0.0 0.0 0.0 0.0 0.0 0.0 0.0 0.0 12.1 5.6 0.3 0.0 0.0 0.0 0.0 0.0 0.0 0.0 2.8 13.8 19.2 14.2 4.2 4.1 3.6 3.1 4.3 1.1 5.7 5.3 15.0 6.7 3.6 3.3 2.2 1.4 1.1 0.1 0.1 0.0
0.0 0.0 0.0 0.0 0.0 0.0 0.0 0.0 0.0 0.0 0.0 0.0 0.0 0.0 0.0 0.0 0.0 0.0 16.2 0.0 0.0 0.0 3.4 8.9 1.3 1.2 0.0 0.0 0.0 0.0 0.0 0.0 2.2 9.0 11.0 6.4 0.0 0.7 9.7 5.5 1.0 1.1 1.5 2.2 5.5 5.4 3.8 3.7 2.7 1.9 1.8 1.3 0.1 0.0
0.0 0.0 0.0 0.0 0.0 0.0 0.0 0.0 0.0 0.0 0.0 0.0 0.0 0.0 0.0 0.0 0.0 0.0 5.2 0.0 0.0 0.0 5.1 13.9 4.1 1.4 0.0 0.0 0.0 0.0 0.0 0.4 1.4 4.6 7.2 2.4 0.7 0.5 9.1 7.7 1.2 1.4 1.5 1.8 1.7 1.9 3.6 3.4 3.8 1.7 0.9 0.9 0.5 0.4
0.0 0.0 0.0 0.0 0.0 0.0 0.0 0.0 0.0 0.0 0.0 0.0 0.0 0.0 0.0 0.0 0.0 0.2 0.0 0.0 0.0 0.0 0.4 16.3 8.5 2.6 0.0 1.6 2.5 0.0 0.9 1.9 5.0 4.4 4.6 2.4 1.7 4.1 15.8 0.4 0.3 0.7 0.4 1.4 1.1 0.5 1.3 1.3 1.1 1.0 0.7 0.6 0.6 0.5
0.0 0.0 0.0 0.0 0.0 0.0 0.0 0.0 0.0 0.0 0.0 0.0 0.0 0.0 0.0 0.0 16.1 1.3 0.0 0.0 0.0 0.0 17.5 6.9 4.7 10.8 0.0 1.1 0.6 1.5 0.8 12.4 2.0 5.6 1.3 0.5 6.8 16.2 7.1 1.2 0.8 0.6 0.7 0.6 0.4 0.1 0.2 0.8 1.0 0.8 1.0 0.8 0.5 1.5
0.0 0.0 0.0 0.0 0.0 0.0 0.0 0.0 0.0 0.0 0.0 0.0 0.0 8.8 54.8 7.6 0.0 0.0 0.0 14.5 15.5 12.8 5.5 5.9 0.2 5.7 0.0 3.8 5.9 4.9 5.7 7.8 11.4 2.3 0.2 7.2 6.3 4.7 2.3 1.1 0.4 1.3 0.2 0.2 0.5 0.6 0.1 0.3 0.4 0.5 0.5 0.2 0.3 0.5
0.0 0.0 0.0 0.0 0.0 0.0 0.0 0.0 0.0 0.0 0.0 0.0 18.5 24.5 1.9 0.0 0.0 7.7 29.6 25.3 15.5 15.1 2.8 0.9 0.4 1.9 0.1 9.6 10.4 3.9 11.3 4.3 8.4 2.4 3.5 7.9 5.7 4.8 2.3 2.8 1.9 1.8 0.9 0.9 0.7 0.2 0.0 0.1 0.6 0.5 0.4 0.8 0.4 0.8
0.0 0.0 0.0 0.0 0.0 0.0 0.0 0.0 0.0 0.0 0.0 0.0 0.0 0.0 0.6 4.7 15.9 22.4 17.6 9.4 3.2 3.3 2.7 2.6 2.3 1.4 3.3 1.5 9.6 11.2 14.8 9.5 10.3 2.7 14.5 7.7 7.6 3.0 2.1 2.0 1.9 2.4 2.3 1.4 0.5 2.1 2.2 1.2 0.8 0.3 0.3 0.9 0.7 1.0
0.0 0.0 0.0 0.0 0.0 0.0 0.0 0.0 0.0 0.0 0.0 0.0 3.2 19.2 23.1 22.9 28.4 17.1 9.9 4.0 2.8 1.6 2.1 2.1 5.3 2.0 1.8 1.0 11.4 10.7 13.4 14.6 3.8 19.5 12.2 6.9 3.2 1.4 1.0 0.7 1.0 1.4 1.7 2.0 2.2 1.8 2.1 3.9 4.3 4.2 5.1 7.8 7.5 9.2
0.0 0.0 0.0 0.0 0.0 0.0 0.0 0.0 0.0 0.0 0.0 10.6 15.8 27.6 24.1 20.2 11.0 8.7 3.5 3.2 2.2 2.5 2.6 3.4 7.3 6.8 4.4 9.4 12.3 20.5 9.5 7.2 16.5 18.4 8.9 9.8 8.1 4.9 2.2 1.5 1.4 3.3 3.8 3.5 4.6 5.8 6.4 8.4 11.3 12.9 14.1 15.3 13.7 15.4
0.0 0.0 0.0 0.0 0.0 0.0 0.0 0.0 0.0 0.0 3.6 14.1 12.1 19.5 11.3 11.8 6.9 6.3 4.8 3.0 3.2 4.0 7.5 10.6 11.1 8.2 9.9 14.5 9.5 10.4 14.3 11.9 9.2 9.8 14.7 12.3 7.8 3.8 3.5 2.8 3.2 5.1 6.1 7.2 7.6 7.9 9.2 8.7 7.5 11.0 12.3 12.0 10.0 11.4
0.0 0.0 0.0 0.0 0.0 0.0 0.0 0.0 0.5 1.0 4.4 6.1 8.2 9.5 6.8 9.1 10.2 8.4 7.4 7.5 2.9 6.5 4.0 9.3 16.4 19.2 17.3 11.4 12.8 9.9 7.6 9.2 13.7 10.2 9.3 5.4 5.0 4.7 5.0 5.4 7.3 8.1 8.3 8.7 8.7 7.8 7.9 7.9 6.8 8.6 9.0 8.5 9.3 7.9
0.0 0.9 0.0 0.0 0.0 0.0 0.0 1.3 1.9 4.1 4.8 4.8 9.5 9.0 8.4 9.3 12.6 10.6 9.0 7.3 3.7 8.8 10.4 6.0 12.6 14.7 8.9 9.5 11.5 9.0 14.9 14.1 13.1 11.1 6.8 5.3 5.9 7.2 8.1 9.0 10.6 10.5 9.3 8.3 8.0 7.7 8.4 7.7 6.2 4.7 7.0 10.1 7.7 7.5
0.2 0.0 0.0 0.0 0.0 0.0 1.6 1.2 1.8 2.2 3.6 6.4 10.2 12.1 8.7 12.5 12.6 9.7 8.6 6.6 7.8 7.2 4.7 10.1 2.3 5.3 7.0 8.0 9.2 13.8 13.4 10.7 7.6 7.9 9.4 9.6 9.0 9.2 9.7 11.3 11.8 10.3 9.2 9.7 8.9 8.6 8.7 8.5 6.9 8.7 8.0 8.2 6.3 6.7
0.1 0.0 0.0 0.0 0.0 1.2 4.4 3.6 1.0 3.8 7.4 6.3 8.1 6.5 6.0 8.4 8.0 8.6 7.3 5.8 7.6 6.2 7.0 7.8 8.0 8.0 12.0 12.4 13.2 11.7 10.8 8.1 10.4 11.7 12.2 12.0 11.5 11.4 12.5 11.4 11.7 11.7 10.7 11.4 9.6 9.1 9.5 8.8 7.7 7.3 6.8 6.0 6.0 5.7
0.0 0.0 0.0 0.0 0.0 0.8 2.1 1.5 0.3 0.2 5.0 5.9 4.9 4.3 3.5 6.1 4.0 2.7 1.9 3.1 5.0 10.0 12.1 11.4 15.7 19.1 18.4 17.4 14.7 12.9 12.1 7.9 7.3 7.7 12.2 13.8 14.3 11.5 12.7 10.6 10.7 10.5 8.9 9.3 9.2 8.4 7.1 6.6 6.6 5.7 4.5 3.0 3.5 3.8
0.0 0.0 0.0 0.0 0.1 0.1 0.3 1.1 1.8 0.5 1.0 2.8 1.2 0.5 2.7 0.4 0.4 0.6 0.5 1.3 7.1 12.6 17.5 20.3 20.3 19.6 18.1 16.8 12.6 10.3 10.6 7.7 9.3 6.9 9.1 12.9 13.9 9.0 10.4 10.8 9.3 8.3 7.7 8.7 8.2 8.9 6.7 6.4 4.8 3.8 4.4 5.0 3.9 4.4
0.0 0.0 0.9 0.0 1.8 0.9 0.9 0.0 0.1 0.5 0.6 0.9 0.6 0.7 1.4 1.9 0.9 1.0 0.2 1.8 9.7 14.4 15.2 15.4 15.1 13.7 12.2 14.1 14.9 11.2 12.2 8.1 7.2 6.6 7.9 6.7 10.1 10.0 11.3 11.8 8.9 9.4 8.9 8.8 6.5 5.7 4.7 3.7 3.3 3.3 3.9 4.8 4.7 5.8
0.0 1.0 3.5 2.6 3.6 1.0 0.7 0.1 0.5 0.2 0.6 0.8 0.5 0.8 0.9 2.1 1.7 0.3 1.4 2.2 10.0 12.5 9.5 7.7 9.3 8.9 9.9 12.7 8.3 9.0 10.1 7.6 7.9 8.5 9.0 8.9 8.7 8.8 7.7 8.2 6.9 5.5 5.5 6.0 4.4 4.6 5.2 4.3 3.8 4.2 4.3 4.1 6.0 6.0
0.0 4.4 6.5 4.3 2.7 3.3 1.0 2.1 0.8 0.3 0.2 0.5 0.9 0.7 1.1 1.0 0.2 0.8 2.7 6.6 10.9 6.2 5.1 7.2 5.6 5.6 5.3 5.2 7.5 9.1 10.9 7.0 6.6 7.0 7.4 4.5 4.2 5.2 3.4 4.1 4.3 4.6 5.3 4.5 3.8 4.5 4.4 5.4 5.6 5.0 4.8 5.5 6.4 5.6
4.1 3.1 3.9 3.4 1.5 1.5 0.6 0.7 1.1 0.6 0.5 0.2 0.4 0.9 1.1 0.0 0.9 1.1 2.6 8.4 7.0 6.5 6.0 4.8 3.0 3.1 5.0 7.4 8.5 8.1 5.7 3.5 3.6 4.4 5.3 3.2 3.4 3.5 3.3 3.3 3.5 4.1 3.6 3.6 3.9 5.1 5.7 5.2 5.5 5.0 5.0 5.1 6.1 6.0
3.0 0.8 1.2 1.3 1.2 0.9 0.2 0.5 0.5 0.9 0.4 0.7 1.6 1.0 0.4 0.9 1.2 3.3 5.7 9.3 7.7 7.2 7.6 7.2 5.5 3.3 3.1 3.1 3.8 3.4 3.6 2.5 1.9 2.7 3.6 2.4 2.9 3.9 3.7 3.7 3.6 3.8 2.9 4.5 5.4 6.1 4.9 4.2 4.7 4.3 5.4 5.0 5.9 6.1
1.9 1.5 0.5 0.0 1.7 2.5 2.6 1.5 1.5 2.0 2.2 2.6 2.4 1.8 2.5 3.2 4.4 7.3 7.2 6.8 5.8 6.2 4.5 3.9 2.4 2.3 2.9 3.0 1.7 1.6 1.3 0.9 1.2 2.8 3.3 2.8 2.6 3.0 3.7 6.1 6.6 6.4 3.8 4.3 4.8 5.2 5.5 5.4 5.5 5.1 5.4 6.1 5.7 6.3
0.3 0.5 1.3 2.1 3.0 3.1 4.9 3.9 3.6 4.2 4.1 3.3 3.1 3.4 3.4 4.2 7.4 8.8 7.7 6.5 5.4 2.9 2.0 1.6 1.6 1.8 2.1 2.6 2.6 2.2 1.9 1.6 1.8 2.3 2.6 2.5 2.2 3.4 3.9 3.4 3.3 2.6 2.8 3.5 3.7 3.6 4.1 4.9 6.1 6.2 6.6 6.3 6.6 6.1
1.1 0.9 0.9 1.6 1.9 1.6 2.8 3.6 4.0 4.1 3.2 3.0 3.1 3.3 4.1 4.7 10.0 9.2 7.7 5.9 4.0 2.5 2.6 2.4 4.0 2.2 2.0 3.1 1.9 1.8 2.3 2.9 4.2 5.1 6.0 7.7 6.1 5.2 3.3 2.7 2.6 2.4 2.3 2.5 2.3 2.7 3.6 4.3 5.5 5.3 6.7 6.7 7.2 7.2
0.7 0.5 0.5 0.2 0.5 0.7 4.2 2.0 2.6 2.2 0.5 1.4 1.0 0.9 1.2 7.9 11.7 8.3 6.8 5.0 4.6 5.6 6.8 5.2 4.7 2.6 3.9 1.9 4.3 2.8 3.4 3.7 4.4 5.9 7.4 7.0 6.7 5.1 2.8 2.4 1.9 2.1 2.1 2.5 2.7 2.8 2.8 2.4 3.2 3.4 4.6 5.1 7.0 8.1
0.8 1.7 2.3 1.6 2.2 3.5 2.8 1.3 1.6 1.8 2.2 2.3 2.4 2.4 4.1 6.2 8.7 5.4 5.6 7.8 4.8 3.8 3.0 3.5 3.7 4.4 4.2 4.2 5.0 4.5 6.2 5.0 4.9 5.3 6.1 6.5 4.9 3.4 2.7 2.1 2.2 1.9 2.1 1.9 2.3 2.5 3.3 3.4 4.7 5.5 4.7 5.1 5.5 6.3
2.1 3.6 4.0 3.7 4.5 3.4 3.8 5.6 3.6 4.2 3.6 3.7 4.0 2.1 4.6 4.9 3.7 6.3 4.8 4.9 5.2 5.3 5.1 5.6 5.9 7.1 7.0 8.0 7.2 6.9 6.4 5.4 4.5 4.0 3.9 3.8 3.9 3.1 2.4 1.7 2.2 2.5 2.4 2.2 2.4 2.3 2.7 3.9 5.0 5.4 6.0 5.4 5.8 5.6
2.7 2.9 3.3 4.2 4.1 4.6 4.5 5.9 4.9 5.7 4.9 4.6 5.3 5.5 5.8 4.5 5.8 8.8 4.2 4.9 10.7 11.1 9.2 8.6 9.0 8.9 9.2 7.5 6.3 6.3 5.8 5.1 4.0 3.2 3.1 2.5 2.0 1.6 1.4 1.9 1.9 2.5 2.7 2.9 3.0 2.9 3.1 3.0 3.6 3.7 3.5 3.8 3.8 3.4

GFSWCAN_prec_kuchsnow_237.txt.gz
Snowfall_Accumulation
0.0 0.0 0.0 0.0 0.0 0.0 0.0 0.0 0.0 0.0 0.0 0.0 0.0 0.0 0.0 0.0 0.0 0.0 0.0 0.0 0.0 14.8 3.1 0.0 0.0 0.4 0.5 0.2 1.8 3.3 3.5 5.7 5.1 9.4 10.7 13.1 9.7 2.3 1.2 0.9 3.5 2.0 7.2 9.3 8.6 18.1 15.8 0.0 0.0 1.5 2.3 0.4 0.2 0.2
0.0 0.0 0.0 0.0 0.0 0.0 0.0 0.0 0.0 0.0 0.0 0.0 0.0 0.0 0.0 0.0 0.0 0.0 0.0 0.0 0.0 0.8 4.5 0.0 0.0 0.0 0.0 0.0 0.0 0.0 0.6 0.4 0.6 5.2 3.4 3.1 12.0 5.7 3.3 6.3 0.0 9.1 2.1 5.8 5.7 5.7 1.0 0.1 0.8 0.5 0.3 0.2 0.2 0.0
0.0 0.0 0.0 0.0 0.0 0.0 0.0 0.0 0.0 0.0 0.0 0.0 0.0 0.0 0.0 0.0 0.0 0.0 0.0 0.0 0.0 7.0 6.4 0.0 1.9 0.0 0.0 0.0 0.0 1.1 0.0 0.0 0.0 0.0 4.3 5.3 14.0 2.6 8.3 3.2 2.4 2.2 0.9 5.2 2.6 1.9 0.4 0.1 0.1 0.1 0.1 0.1 0.0 0.1
0.0 0.0 0.0 0.0 0.0 0.0 0.0 0.0 0.0 0.0 0.0 0.0 0.0 0.0 0.0 0.0 0.0 0.0 0.0 0.0 0.0 0.1 18.1 11.1 0.0 0.0 0.0 0.0 0.0 0.0 0.0 0.0 0.0 0.0 16.3 19.2 16.3 3.6 6.9 1.2 1.1 0.7 2.0 6.5 5.3 2.5 1.3 0.6 0.6 0.8 0.2 0.0 0.0 0.0
0.0 0.0 0.0 0.0 0.0 0.0 0.0 0.0 0.0 0.0 0.0 0.0 0.0 0.0 0.0 0.0 0.0 0.0 0.0 0.0 0.0 0.0 14.4 7.1 0.3 0.0 0.0 0.0 0.0 0.0 0.0 0.0 2.8 14.9 22.6 17.3 6.1 5.8 4.8 3.8 4.6 1.1 5.7 5.3 15.6 6.7 3.6 3.3 2.2 1.4 1.1 0.1 0.1 0.0
0.0 0.0 0.0 0.0 0.0 0.0 0.0 0.0 0.0 0.0 0.0 0.0 0.0 0.0 0.0 0.0 0.0 0.0 16.8 0.0 0.0 0.0 3.4 10.5 1.3 1.2 0.0 0.0 0.0 0.0 0.0 0.0 2.2 9.7 12.1 6.7 0.0 0.7 10.9 5.9 1.0 1.1 1.5 2.2 5.5 5.4 3.8 3.7 2.7 1.9 1.8 1.3 0.1 0.0
0.0 0.0 0.0 0.0 0.0 0.0 0.0 0.0 0.0 0.0 0.0 0.0 0.0 0.0 0.0 0.0 0.0 0.0 5.2 0.0 0.0 0.0 5.1 14.9 5.0 1.4 0.0 0.0 0.0 0.0 0.0 0.4 1.4 4.6 7.3 2.5 0.7 0.5 9.3 7.7 1.2 1.4 1.5 1.8 1.7 1.9 3.6 3.4 3.8 1.7 0.9 0.9 0.5 0.4
0.0 0.0 0.0 0.0 0.0 0.0 0.0 0.0 0.0 0.0 0.0 0.0 0.0 0.0 0.0 0.0 0.0 0.2 0.0 0.0 0.0 0.0 0.4 16.6 9.2 2.9 0.0 1.6 2.6 0.0 0.9 1.9 5.0 4.4 4.6 2.4 1.7 4.1 15.9 0.4 0.3 0.7 0.4 1.4 1.1 0.5 1.3 1.3 1.1 1.0 0.7 0.6 0.6 0.5
0.0 0.0 0.0 0.0 0.0 0.0 0.0 0.0 0.0 0.0 0.0 0.0 0.0 0.0 0.0 0.0 16.1 1.3 0.0 0.0 0.0 0.0 17.5 6.9 4.7 11.1 0.0 1.1 0.6 1.5 0.8 12.5 2.0 5.7 1.3 0.5 6.8 16.3 7.1 1.2 0.8 0.6 0.7 0.6 0.4 0.1 0.2 0.8 1.0 0.8 1.0 0.8 0.5 1.5
0.0 0.0 0.0 0.0 0.0 0.0 0.0 0.0 0.0 0.0 0.0 0.0 0.0 8.8 55.7 7.6 0.0 0.0 0.0 14.5 15.5 12.8 5.5 5.9 0.2 5.7 0.0 3.8 5.9 4.9 5.7 7.8 11.5 2.3 0.2 7.2 6.3 4.7 2.3 1.1 0.4 1.3 0.2 0.2 0.5 0.6 0.1 0.3 0.4 0.5 0.5 0.2 0.3 0.5
0.0 0.0 0.0 0.0 0.0 0.0 0.0 0.0 0.0 0.0 0.0 0.0 18.5 25.4 1.9 0.0 0.0 7.7 30.2 26.0 15.5 15.1 2.8 0.9 0.4 1.9 0.1 9.6 10.4 3.9 11.3 4.4 8.4 2.4 3.5 7.9 5.7 4.8 2.3 2.8 1.9 1.8 0.9 0.9 0.7 0.2 0.0 0.1 0.6 0.5 0.4 0.8 0.4 0.8
0.0 0.0 0.0 0.0 0.0 0.0 0.0 0.0 0.0 0.0 0.0 0.0 0.0 0.0 0.6 4.7 16.0 22.4 18.0 9.4 3.2 3.3 2.7 2.6 2.3 1.4 3.3 1.5 9.6 11.2 14.8 9.5 10.3 2.7 14.5 7.7 7.6 3.0 2.1 2.0 1.9 2.4 2.3 1.4 0.5 2.1 2.2 1.2 0.8 0.3 0.3 0.9 0.7 1.0
0.0 0.0 0.0 0.0 0.0 0.0 0.0 0.0 0.0 0.0 0.0 0.0 3.2 19.3 23.1 22.9 28.4 17.3 10.1 4.0 2.9 1.6 2.1 2.1 5.3 2.0 1.8 1.0 11.4 10.7 13.4 14.6 3.8 19.5 12.2 6.9 3.2 1.4 1.0 0.7 1.0 1.4 1.7 2.0 2.2 1.8 2.1 3.9 4.3 4.2 5.1 7.9 7.7 9.2
0.0 0.0 0.0 0.0 0.0 0.0 0.0 0.0 0.0 0.0 0.0 10.6 15.8 27.6 24.2 20.2 11.1 9.0 3.5 3.2 2.2 2.5 2.6 3.4 7.3 6.8 4.4 9.4 12.3 20.5 9.5 7.2 16.5 18.4 8.9 9.8 8.1 4.9 2.2 1.5 1.4 3.3 3.8 3.5 4.6 5.8 6.4 8.4 11.3 13.1 14.4 15.6 13.7 15.4
0.0 0.0 0.0 0.0 0.0 0.0 0.0 0.0 0.0 0.0 3.6 14.1 12.1 19.6 11.3 11.8 6.9 6.3 4.8 3.0 3.2 4.0 7.5 10.6 11.1 8.2 9.9 14.5 9.5 10.4 14.3 11.9 9.2 9.8 14.7 12.3 7.8 3.8 3.5 2.8 3.2 5.1 6.1 7.2 7.6 7.9 9.2 8.7 7.5 11.0 12.4 12.0 10.0 11.4
0.0 0.0 0.0 0.0 0.0 0.0 0.0 0.0 0.5 1.0 4.4 6.1 8.2 9.5 6.8 9.1 10.2 8.4 7.4 7.5 2.9 6.5 4.0 9.3 16.4 19.3 17.3 11.4 12.8 9.9 7.6 9.2 13.7 10.2 9.3 5.4 5.0 4.7 5.0 5.4 7.3 8.1 8.3 8.7 8.7 7.8 7.9 7.9 6.8 8.6 9.0 8.5 9.3 7.9
0.0 0.9 0.0 0.0 0.0 0.0 0.0 1.3 1.9 4.1 4.8 4.8 9.5 9.0 8.4 9.3 12.6 10.6 9.0 7.3 3.7 8.8 10.4 6.0 12.6 14.7 8.9 9.6 11.6 9.0 14.9 14.1 13.1 11.1 6.8 5.3 5.9 7.2 8.1 9.0 10.6 10.5 9.3 8.3 8.0 7.7 8.4 7.7 6.2 4.7 7.0 10.1 7.7 7.5
0.2 0.0 0.0 0.0 0.0 0.0 1.6 1.2 1.8 2.2 3.6 6.4 10.2 12.1 8.7 12.5 12.6 9.7 8.6 6.6 7.8 7.2 4.7 10.1 2.3 5.4 7.0 8.0 9.2 13.8 13.4 10.7 7.6 7.9 9.4 9.6 9.0 9.2 9.7 11.3 11.8 10.3 9.2 9.7 8.9 8.6 8.7 8.5 6.9 8.7 8.0 8.2 6.3 6.7
0.1 0.0 0.0 0.0 0.0 1.2 4.4 3.6 1.0 3.8 7.4 6.3 8.1 6.5 6.0 8.4 8.0 8.6 7.3 5.8 7.6 6.2 7.0 7.8 8.0 8.0 12.0 12.4 13.2 11.7 10.8 8.1 10.4 11.7 12.2 12.0 11.5 11.4 12.5 11.4 11.7 11.7 10.7 11.4 9.6 9.1 9.5 8.8 7.7 7.3 6.8 6.0 6.0 5.7
0.0 0.0 0.0 0.0 0.0 0.8 2.1 1.5 0.3 0.2 5.0 5.9 4.9 4.3 3.5 6.1 4.0 2.7 1.9 3.1 5.0 10.0 12.2 11.4 15.7 19.1 18.4 17.4 14.7 12.9 12.1 7.9 7.3 7.7 12.2 13.8 14.3 11.5 12.7 10.6 10.7 10.5 8.9 9.3 9.2 8.4 7.1 6.6 6.6 5.7 4.5 3.0 3.5 3.8
0.0 0.0 0.0 0.0 0.1 0.1 0.3 1.1 1.8 0.5 1.0 2.8 1.2 0.5 2.7 0.4 0.4 0.6 0.5 1.3 7.3 12.7 17.5 20.3 20.3 19.6 18.1 16.8 12.6 10.3 10.6 7.7 9.3 6.9 9.1 12.9 13.9 9.0 10.4 10.8 9.3 8.3 7.7 8.7 8.2 8.9 6.7 6.4 4.8 3.8 4.4 5.0 3.9 4.4
0.0 0.0 0.9 0.0 1.8 0.9 0.9 0.0 0.1 0.5 0.6 0.9 0.6 0.7 1.4 1.9 0.9 1.0 0.2 1.9 9.7 14.4 15.2 15.4 15.1 13.7 12.2 14.1 14.9 11.2 12.2 8.1 7.2 6.6 7.9 6.7 10.1 10.0 11.3 11.8 8.9 9.4 8.9 8.8 6.5 5.7 4.7 3.7 3.3 3.3 3.9 4.8 4.7 5.8
0.0 1.0 3.5 2.6 3.6 1.0 0.7 0.1 0.5 0.2 0.6 0.8 0.5 0.8 0.9 2.1 1.7 0.3 1.7 2.2 10.0 12.5 9.5 7.7 9.3 8.9 9.9 12.7 8.3 9.0 10.1 7.6 7.9 8.5 9.0 8.9 8.7 8.8 7.7 8.2 6.9 5.5 5.5 6.0 4.4 4.6 5.2 4.3 3.8 4.2 4.3 4.1 6.0 6.2
0.0 4.4 6.5 4.3 2.7 3.3 1.0 2.1 0.8 0.3 0.2 0.5 0.9 0.7 1.1 1.0 0.2 1.0 2.8 6.6 10.9 6.2 5.1 7.2 5.6 5.6 5.3 5.2 7.5 9.1 10.9 7.0 6.6 7.0 7.4 4.5 4.2 5.2 3.4 4.1 4.3 4.6 5.3 4.5 3.8 4.5 4.4 5.4 5.6 5.0 4.8 5.5 6.4 5.7
4.3 3.1 3.9 3.4 1.5 1.5 0.6 0.7 1.1 0.6 0.5 0.2 0.4 1.0 1.1 0.0 1.0 1.1 2.6 8.4 7.0 6.5 6.0 4.8 3.0 3.1 5.0 7.4 8.5 8.1 5.7 3.5 3.6 4.4 5.3 3.2 3.4 3.5 3.3 3.3 3.5 4.1 3.6 3.6 3.9 5.1 5.7 5.2 5.6 5.0 5.0 5.1 6.1 6.0
3.3 0.8 1.2 1.3 1.2 0.9 0.2 0.5 0.5 0.9 0.4 0.7 1.6 1.0 0.4 0.9 1.2 3.3 5.7 9.3 7.7 7.2 7.6 7.2 5.5 3.3 3.1 3.1 3.8 3.4 3.6 2.5 1.9 2.7 3.6 2.4 2.9 3.9 3.7 3.7 3.7 3.9 2.9 4.5 5.4 6.1 4.9 4.2 4.7 4.3 5.4 5.0 5.9 6.1
2.0 1.5 0.5 0.0 1.7 2.5 2.6 1.5 1.5 2.0 2.2 2.7 2.4 1.8 2.5 3.2 4.4 7.3 7.2 6.8 5.8 6.2 4.5 3.9 2.4 2.3 2.9 3.0 1.7 1.6 1.3 0.9 1.2 2.8 3.3 2.8 2.6 3.0 3.7 6.1 6.6 6.4 3.8 4.3 4.8 5.2 5.5 5.4 5.5 5.1 5.4 6.2 5.8 6.3
0.3 0.5 1.3 2.1 3.0 3.1 4.9 3.9 3.6 4.2 4.1 3.3 3.1 3.5 3.4 4.2 7.4 8.8 7.7 6.5 5.4 2.9 2.0 1.6 1.6 1.8 2.1 2.6 2.6 2.2 1.9 1.6 1.8 2.3 2.6 2.5 2.2 3.4 3.9 3.4 3.3 2.6 2.8 3.5 3.7 3.6 4.1 4.9 6.1 6.2 6.6 6.3 6.7 6.1
1.2 0.9 1.0 1.7 1.9 1.6 2.8 3.7 4.0 4.1 3.2 3.0 3.1 3.3 4.1 4.7 10.0 9.2 7.7 5.9 4.0 2.5 2.6 2.4 4.0 2.2 2.0 3.1 1.9 1.8 2.3 2.9 4.2 5.1 6.0 7.7 6.3 5.6 3.3 2.7 2.6 2.4 2.3 2.5 2.3 2.7 3.6 4.3 5.5 5.3 6.7 6.7 7.2 7.3
0.7 0.6 0.7 0.3 0.5 0.7 4.2 2.0 2.6 2.2 0.5 1.4 1.0 0.9 1.2 7.9 11.7 8.3 6.8 5.0 4.6 5.6 6.8 5.2 4.7 2.6 3.9 1.9 4.4 2.9 3.4 3.7 4.4 5.9 7.4 7.0 6.7 5.1 2.8 2.4 1.9 2.1 2.1 2.5 2.7 2.8 2.8 2.4 3.2 3.4 4.6 5.2 7.0 8.1
1.0 1.8 2.4 2.0 2.3 3.5 2.8 1.3 1.6 1.8 2.2 2.3 2.4 2.4 4.1 6.2 8.7 5.4 5.6 7.8 4.8 3.8 3.0 3.5 3.7 4.4 4.2 4.2 5.1 4.6 6.4 5.1 4.9 5.3 6.1 6.5 4.9 3.4 2.7 2.1 2.2 1.9 2.1 1.9 2.3 2.5 3.3 3.4 4.7 5.5 4.7 5.1 5.5 6.3
2.1 4.1 4.5 4.0 5.1 3.4 3.8 5.6 3.6 4.2 3.6 3.7 4.0 2.1 4.6 4.9 3.7 6.3 4.8 4.9 5.2 5.3 5.1 5.6 5.9 7.1 7.0 8.0 7.2 6.9 6.4 5.4 4.5 4.0 3.9 3.8 3.9 3.1 2.4 1.7 2.2 2.5 2.4 2.2 2.4 2.3 2.7 3.9 5.0 5.4 6.0 5.4 5.8 5.6
2.9 3.3 3.7 4.7 4.9 5.3 4.5 5.9 5.1 5.8 5.0 4.7 5.4 5.6 5.8 4.6 6.0 8.9 4.2 4.9 10.8 11.1 9.2 8.6 9.0 8.9 9.2 7.5 6.3 6.3 5.8 5.1 4.0 3.2 3.1 2.5 2.0 1.6 1.4 1.9 1.9 2.5 2.7 2.9 3.0 2.9 3.1 3.0 3.6 3.7 3.5 3.8 3.8 3.4

GFSWCAN_prec_kuchsnow_240.txt.gz
Snowfall_Accumulation
0.0 0.0 0.0 0.0 0.0 0.0 0.0 0.0 0.0 0.0 0.0 0.0 0.0 0.0 0.0 0.0 0.0 0.0 0.0 0.0 0.0 14.8 3.1 0.0 0.0 0.4 0.5 0.2 1.8 3.3 3.5 5.7 5.1 9.4 10.7 13.1 9.7 2.3 1.2 0.9 3.5 2.0 7.2 9.3 8.6 18.1 15.8 0.0 0.0 1.5 2.3 0.4 0.2 0.2
0.0 0.0 0.0 0.0 0.0 0.0 0.0 0.0 0.0 0.0 0.0 0.0 0.0 0.0 0.0 0.0 0.0 0.0 0.0 0.0 0.0 0.8 4.5 0.0 0.0 0.0 0.0 0.0 0.0 0.0 0.6 0.4 0.6 5.2 3.4 3.1 12.0 5.7 3.3 6.3 0.0 9.1 2.1 5.8 5.7 5.7 1.0 0.1 0.8 0.5 0.3 0.2 0.2 0.0
0.0 0.0 0.0 0.0 0.0 0.0 0.0 0.0 0.0 0.0 0.0 0.0 0.0 0.0 0.0 0.0 0.0 0.0 0.0 0.0 0.0 7.0 6.4 0.0 1.9 0.0 0.0 0.0 0.0 1.1 0.0 0.0 0.0 0.0 4.3 5.3 14.0 2.6 8.3 3.2 2.4 2.2 0.9 5.2 2.6 1.9 0.4 0.1 0.1 0.1 0.1 0.1 0.0 0.1
0.0 0.0 0.0 0.0 0.0 0.0 0.0 0.0 0.0 0.0 0.0 0.0 0.0 0.0 0.0 0.0 0.0 0.0 0.0 0.0 0.0 0.1 19.1 12.5 0.0 0.0 0.0 0.0 0.0 0.0 0.0 0.0 0.0 0.0 16.3 19.2 16.3 3.6 6.9 1.2 1.1 0.7 2.0 6.5 5.3 2.5 1.3 0.6 0.6 0.8 0.2 0.0 0.0 0.0
0.0 0.0 0.0 0.0 0.0 0.0 0.0 0.0 0.0 0.0 0.0 0.0 0.0 0.0 0.0 0.0 0.0 0.0 0.0 0.0 0.0 0.0 15.7 8.6 0.3 0.0 0.0 0.0 0.0 0.0 0.0 0.0 2.8 14.9 22.6 17.3 6.1 5.8 4.8 3.8 4.6 1.1 5.7 5.3 15.6 6.7 3.6 3.3 2.2 1.4 1.1 0.1 0.1 0.0
0.0 0.0 0.0 0.0 0.0 0.0 0.0 0.0 0.0 0.0 0.0 0.0 0.0 0.0 0.0 0.0 0.0 0.0 16.8 0.0 0.0 0.0 3.4 12.4 1.3 1.2 0.0 0.0 0.0 0.0 0.0 0.0 2.2 9.7 13.8 8.5 0.0 0.7 11.8 6.4 1.0 1.1 1.5 2.2 5.5 5.4 3.8 3.7 2.7 1.9 1.8 1.3 0.1 0.0
0.0 0.0 0.0 0.0 0.0 0.0 0.0 0.0 0.0 0.0 0.0 0.0 0.0 0.0 0.0 0.0 0.0 0.0 5.2 0.0 0.0 0.0 5.1 16.3 6.2 1.4 0.0 0.0 0.0 0.0 0.0 0.4 1.4 5.5 8.2 3.1 1.0 0.5 9.8 8.0 1.2 1.4 1.5 1.8 1.7 1.9 3.6 3.4 3.8 1.7 0.9 0.9 0.5 0.4
0.0 0.0 0.0 0.0 0.0 0.0 0.0 0.0 0.0 0.0 0.0 0.0 0.0 0.0 0.0 0.0 0.0 0.2 0.0 0.0 0.0 0.0 0.4 17.9 10.7 3.9 0.0 1.9 2.9 0.0 0.9 1.9 5.0 4.5 4.7 2.6 1.7 4.2 15.9 0.4 0.3 0.7 0.4 1.4 1.1 0.5 1.3 1.3 1.1 1.0 0.7 0.6 0.6 0.5
0.0 0.0 0.0 0.0 0.0 0.0 0.0 0.0 0.0 0.0 0.0 0.0 0.0 0.0 0.0 0.0 16.1 1.3 0.0 0.0 0.0 0.0 17.7 7.2 5.3 11.9 0.0 1.3 0.6 1.5 0.8 12.6 2.0 5.7 1.3 0.5 6.8 16.3 7.1 1.2 0.8 0.6 0.7 0.6 0.4 0.1 0.2 0.8 1.0 0.8 1.0 0.8 0.5 1.5
0.0 0.0 0.0 0.0 0.0 0.0 0.0 0.0 0.0 0.0 0.0 0.0 0.0 8.8 55.7 7.6 0.0 0.0 0.0 14.5 15.5 12.8 5.5 6.0 0.2 5.9 0.0 3.9 5.9 4.9 5.7 7.8 11.5 2.3 0.2 7.2 6.3 4.7 2.3 1.1 0.4 1.3 0.2 0.2 0.5 0.6 0.1 0.3 0.4 0.5 0.5 0.2 0.3 0.5
0.0 0.0 0.0 0.0 0.0 0.0 0.0 0.0 0.0 0.0 0.0 0.0 18.5 25.5 1.9 0.0 0.0 7.7 30.2 26.0 15.5 15.1 2.8 1.0 0.4 1.9 0.1 9.6 10.4 3.9 11.3 4.4 8.4 2.4 3.5 7.9 5.7 4.8 2.3 2.8 1.9 1.8 0.9 0.9 0.7 0.2 0.0 0.1 0.6 0.5 0.4 0.8 0.4 0.8
0.0 0.0 0.0 0.0 0.0 0.0 0.0 0.0 0.0 0.0 0.0 0.0 0.0 0.0 0.6 4.7 16.0 22.4 18.0 9.4 3.2 3.3 2.7 2.6 2.3 1.4 3.3 1.5 9.6 11.2 14.8 9.5 10.3 2.7 14.5 7.7 7.6 3.0 2.1 2.0 1.9 2.4 2.3 1.4 0.5 2.1 2.2 1.2 0.8 0.3 0.3 0.9 0.7 1.0
0.0 0.0 0.0 0.0 0.0 0.0 0.0 0.0 0.0 0.0 0.0 0.0 3.2 19.3 23.1 22.9 28.4 17.3 10.1 4.0 3.0 1.6 2.1 2.1 5.3 2.0 1.8 1.0 11.4 10.7 13.4 14.6 3.8 19.5 12.2 6.9 3.2 1.4 1.0 0.7 1.0 1.4 1.7 2.0 2.2 1.8 2.1 3.9 4.3 4.2 5.1 7.9 7.7 9.2
0.0 0.0 0.0 0.0 0.0 0.0 0.0 0.0 0.0 0.0 0.0 10.6 15.8 27.6 24.2 20.2 11.1 9.0 3.5 3.2 2.2 2.5 2.6 3.4 7.3 6.8 4.4 9.4 12.3 20.5 9.5 7.2 16.5 18.4 8.9 9.8 8.1 4.9 2.2 1.5 1.4 3.3 3.8 3.5 4.6 5.8 6.4 8.4 11.3 13.1 14.4 15.6 13.7 15.4
0.0 0.0 0.0 0.0 0.0 0.0 0.0 0.0 0.0 0.0 3.6 14.1 12.1 19.6 11.3 11.9 6.9 6.3 4.8 3.0 3.2 4.0 7.5 10.6 11.1 8.2 9.9 14.5 9.5 10.4 14.3 11.9 9.2 9.8 14.7 12.3 7.8 3.8 3.5 2.8 3.2 5.1 6.1 7.2 7.6 7.9 9.2 8.7 7.5 11.0 12.4 12.0 10.0 11.4
0.0 0.0 0.0 0.0 0.0 0.0 0.0 0.0 0.5 1.0 4.4 6.1 8.2 9.5 6.8 9.1 10.2 8.4 7.4 7.5 2.9 6.5 4.0 9.3 16.4 19.3 17.3 11.4 12.8 9.9 7.6 9.2 13.7 10.2 9.3 5.4 5.0 4.7 5.0 5.4 7.3 8.1 8.3 8.7 8.7 7.8 7.9 7.9 6.8 8.6 9.0 8.5 9.3 7.9
0.0 0.9 0.0 0.0 0.0 0.0 0.0 1.3 1.9 4.1 4.8 4.8 9.5 9.0 8.4 9.3 12.6 10.6 9.0 7.3 3.7 8.8 10.4 6.0 12.6 14.7 8.9 9.6 11.6 9.0 14.9 14.1 13.1 11.1 6.8 5.3 5.9 7.2 8.1 9.0 10.6 10.5 9.3 8.3 8.0 7.7 8.4 7.7 6.2 4.7 7.0 10.1 7.7 7.5
0.2 0.0 0.0 0.0 0.0 0.0 1.6 1.2 1.8 2.2 3.6 6.4 10.2 12.1 8.7 12.5 12.6 9.7 8.6 6.6 7.8 7.2 4.7 10.1 2.3 5.4 7.0 8.0 9.2 13.8 13.4 10.7 7.6 7.9 9.4 9.6 9.0 9.2 9.7 11.3 11.8 10.3 9.2 9.7 8.9 8.6 8.7 8.5 6.9 8.7 8.0 8.2 6.3 6.7
0.1 0.0 0.0 0.0 0.0 1.2 4.4 3.6 1.0 3.8 7.4 6.3 8.1 6.5 6.0 8.4 8.0 8.6 7.3 5.8 7.6 6.2 7.0 7.8 8.0 8.0 12.0 12.4 13.2 11.7 10.8 8.1 10.4 11.7 12.2 12.0 11.5 11.4 12.5 11.4 11.7 11.7 10.7 11.4 9.6 9.1 9.5 8.8 7.7 7.3 6.8 6.0 6.0 5.7
0.0 0.0 0.0 0.0 0.0 0.8 2.1 1.5 0.3 0.2 5.0 5.9 4.9 4.3 3.5 6.1 4.0 2.7 1.9 3.1 5.0 10.0 12.2 11.4 15.7 19.1 18.4 17.4 14.7 12.9 12.1 7.9 7.3 7.7 12.2 13.8 14.3 11.5 12.7 10.6 10.7 10.5 8.9 9.3 9.2 8.4 7.1 6.6 6.6 5.7 4.5 3.0 3.5 3.8
0.0 0.0 0.0 0.0 0.1 0.1 0.3 1.1 1.8 0.5 1.0 2.8 1.2 0.5 2.7 0.4 0.4 0.6 0.5 1.3 7.3 12.7 17.5 20.3 20.3 19.6 18.1 16.8 12.6 10.3 10.6 7.7 9.3 6.9 9.1 12.9 13.9 9.0 10.4 10.8 9.3 8.3 7.7 8.7 8.2 8.9 6.7 6.4 4.8 3.8 4.4 5.0 3.9 4.4
0.0 0.0 0.9 0.0 1.8 0.9 0.9 0.0 0.1 0.5 0.6 0.9 0.6 0.7 1.4 1.9 0.9 1.0 0.2 1.9 9.7 14.4 15.2 15.4 15.1 13.7 12.2 14.1 14.9 11.2 12.2 8.1 7.2 6.6 7.9 6.7 10.1 10.0 11.3 11.8 8.9 9.4 8.9 8.8 6.5 5.7 4.7 3.7 3.3 3.3 3.9 4.8 4.7 5.8
0.0 1.0 3.5 2.6 3.6 1.0 0.7 0.1 0.5 0.2 0.6 0.8 0.5 0.8 0.9 2.1 1.7 0.3 1.7 2.2 10.0 12.5 9.5 7.7 9.3 8.9 9.9 12.7 8.3 9.0 10.1 7.6 7.9 8.5 9.0 8.9 8.7 8.8 7.7 8.2 6.9 5.5 5.5 6.0 4.4 4.6 5.2 4.3 3.8 4.2 4.3 4.1 6.0 6.2
0.0 4.4 6.5 4.3 2.7 3.3 1.0 2.1 0.8 0.3 0.2 0.5 0.9 0.7 1.1 1.0 0.2 1.0 2.8 6.6 10.9 6.2 5.1 7.2 5.6 5.6 5.3 5.2 7.5 9.1 10.9 7.0 6.6 7.0 7.4 4.5 4.2 5.2 3.4 4.1 4.3 4.6 5.3 4.5 3.8 4.5 4.4 5.4 5.6 5.0 4.8 5.5 6.4 5.7
4.3 3.1 3.9 3.4 1.5 1.5 0.6 0.7 1.1 0.6 0.5 0.2 0.4 1.0 1.1 0.0 1.0 1.1 2.6 8.4 7.0 6.5 6.0 4.8 3.0 3.1 5.0 7.4 8.5 8.1 5.7 3.5 3.6 4.4 5.3 3.2 3.4 3.5 3.3 3.3 3.5 4.1 3.6 3.6 3.9 5.1 5.7 5.2 5.6 5.0 5.0 5.1 6.1 6.0
3.3 0.8 1.2 1.3 1.2 0.9 0.2 0.5 0.5 0.9 0.4 0.7 1.6 1.0 0.4 0.9 1.2 3.3 5.7 9.3 7.7 7.2 7.6 7.2 5.5 3.3 3.1 3.1 3.8 3.4 3.6 2.5 1.9 2.7 3.6 2.4 2.9 3.9 3.7 3.7 3.7 4.0 2.9 4.5 5.4 6.1 4.9 4.2 4.7 4.3 5.4 5.0 5.9 6.1
2.1 1.5 0.5 0.0 1.7 2.5 2.6 1.5 1.5 2.0 2.2 2.7 2.4 1.8 2.5 3.2 4.4 7.3 7.2 6.8 5.8 6.2 4.5 3.9 2.4 2.3 2.9 3.0 1.7 1.6 1.3 0.9 1.2 2.8 3.3 2.8 2.6 3.0 3.7 6.1 6.6 6.4 3.8 4.3 4.8 5.2 5.5 5.4 5.5 5.1 5.4 6.2 5.8 6.3
0.3 0.5 1.3 2.1 3.0 3.1 4.9 3.9 3.6 4.2 4.1 3.3 3.1 3.5 3.4 4.2 7.4 8.8 7.7 6.5 5.4 2.9 2.0 1.6 1.6 1.8 2.1 2.6 2.6 2.2 1.9 1.6 1.8 2.3 2.6 2.5 2.2 3.4 3.9 3.4 3.3 2.6 2.8 3.5 3.7 3.6 4.1 4.9 6.1 6.2 6.6 6.3 6.7 6.1
1.2 0.9 1.0 1.7 1.9 1.6 2.8 3.7 4.0 4.1 3.2 3.0 3.1 3.3 4.1 4.7 10.0 9.2 7.7 5.9 4.0 2.5 2.6 2.4 4.0 2.2 2.0 3.1 1.9 1.8 2.3 2.9 4.2 5.2 6.0 7.8 6.4 5.7 3.3 2.7 2.6 2.4 2.3 2.5 2.3 2.7 3.6 4.3 5.5 5.3 6.7 6.7 7.2 7.3
0.7 0.6 0.7 0.3 0.5 0.7 4.2 2.0 2.6 2.2 0.5 1.4 1.0 0.9 1.2 7.9 11.7 8.3 6.8 5.0 4.6 5.6 6.8 5.2 4.7 2.6 3.9 1.9 4.4 3.0 3.4 3.7 4.4 5.9 7.4 7.0 6.7 5.1 2.8 2.4 1.9 2.1 2.1 2.5 2.7 2.8 2.8 2.4 3.2 3.4 4.6 5.2 7.0 8.1
1.0 1.8 2.4 2.0 2.3 3.5 2.8 1.3 1.6 1.8 2.2 2.3 2.4 2.4 4.1 6.2 8.7 5.4 5.6 7.8 4.8 3.8 3.0 3.5 3.7 4.4 4.2 4.3 5.1 4.6 6.6 5.2 4.9 5.3 6.1 6.5 4.9 3.4 2.7 2.1 2.2 1.9 2.1 1.9 2.3 2.5 3.3 3.4 4.7 5.5 4.7 5.1 5.5 6.3
2.1 4.1 4.5 4.0 5.1 3.4 3.8 5.6 3.6 4.2 3.6 3.7 4.0 2.1 4.6 4.9 3.7 6.3 4.8 4.9 5.2 5.3 5.1 5.6 5.9 7.1 7.0 8.0 7.2 7.0 6.4 5.4 4.5 4.0 3.9 3.8 3.9 3.1 2.4 1.7 2.2 2.5 2.4 2.2 2.4 2.3 2.7 3.9 5.0 5.4 6.0 5.4 5.8 5.6
2.9 3.3 3.7 4.7 5.3 5.3 4.5 5.9 5.1 5.8 5.0 4.7 5.4 5.6 5.8 4.6 6.0 9.0 4.2 4.9 10.8 11.1 9.2 8.6 9.0 8.9 9.2 7.5 6.3 6.3 5.8 5.1 4.0 3.2 3.1 2.5 2.0 1.6 1.4 1.9 1.9 2.5 2.7 2.9 3.0 2.9 3.1 3.0 3.6 3.7 3.5 3.8 3.8 3.4

GFSWCAN_prec_kuchsnow_246.txt.gz
Snowfall_Accumulation
0.0 0.0 0.0 0.0 0.0 0.0 0.0 0.0 0.0 0.0 0.0 0.0 0.0 0.0 0.0 0.0 0.0 0.0 0.0 0.0 0.0 15.1 3.1 0.0 0.0 0.4 0.5 0.2 2.7 3.3 3.5 5.7 5.1 9.4 10.7 13.1 9.7 2.3 1.2 0.9 3.5 2.0 7.2 9.3 8.6 18.1 15.8 0.0 0.0 1.5 2.3 0.4 0.2 0.2
0.0 0.0 0.0 0.0 0.0 0.0 0.0 0.0 0.0 0.0 0.0 0.0 0.0 0.0 0.0 0.0 0.0 0.0 0.0 0.0 0.0 0.8 4.5 0.0 0.0 0.0 0.0 0.0 0.0 0.0 0.6 0.4 0.6 5.2 3.4 3.1 12.0 5.7 3.3 6.3 0.0 9.1 2.1 5.8 5.7 5.7 1.0 0.1 0.8 0.5 0.3 0.2 0.2 0.0
0.0 0.0 0.0 0.0 0.0 0.0 0.0 0.0 0.0 0.0 0.0 0.0 0.0 0.0 0.0 0.0 0.0 0.0 0.0 0.0 0.0 7.0 7.2 0.0 1.9 0.0 0.0 0.0 0.0 1.5 0.0 0.0 0.0 0.0 4.3 5.3 14.0 2.6 8.3 3.2 2.4 2.2 0.9 5.2 2.6 1.9 0.4 0.1 0.1 0.1 0.1 0.1 0.0 0.1
0.0 0.0 0.0 0.0 0.0 0.0 0.0 0.0 0.0 0.0 0.0 0.0 0.0 0.0 0.0 0.0 0.0 0.0 0.0 0.0 0.0 0.1 22.9 14.9 0.0 0.0 0.0 0.0 0.0 0.0 0.0 0.0 0.0 0.0 16.3 19.2 16.3 3.6 6.9 1.2 1.1 0.7 2.0 6.5 5.3 2.5 1.3 0.6 0.6 0.8 0.2 0.0 0.0 0.0
0.0 0.0 0.0 0.0 0.0 0.0 0.0 0.0 0.0 0.0 0.0 0.0 0.0 0.0 0.0 0.0 0.0 0.0 0.0 0.0 0.0 0.0 18.4 8.6 0.3 0.0 0.0 0.0 0.0 0.0 0.0 0.0 2.8 14.9 22.6 17.3 6.1 5.8 4.8 3.8 4.6 1.1 5.7 5.3 15.6 6.7 3.6 3.3 2.2 1.4 1.1 0.1 0.1 0.0
0.0 0.0 0.0 0.0 0.0 0.0 0.0 0.0 0.0 0.0 0.0 0.0 0.0 0.0 0.0 0.0 0.0 0.0 19.4 0.0 0.0 0.0 3.4 14.0 1.3 1.2 0.0 0.0 0.0 0.0 0.0 0.0 2.2 9.7 13.8 8.5 0.0 0.7 11.8 6.4 1.0 1.1 1.5 2.2 5.5 5.4 3.8 3.7 2.7 1.9 1.8 1.3 0.1 0.0
0.0 0.0 0.0 0.0 0.0 0.0 0.0 0.0 0.0 0.0 0.0 0.0 0.0 0.0 0.0 0.0 0.0 1.8 6.0 0.0 0.0 0.0 6.5 19.7 9.1 1.4 0.0 0.0 0.0 0.0 0.0 0.4 1.4 5.5 9.7 3.1 1.0 0.5 9.8 8.0 1.2 1.4 1.5 1.8 1.7 1.9 3.6 3.4 3.8 1.7 0.9 0.9 0.5 0.4
0.0 0.0 0.0 0.0 0.0 0.0 0.0 0.0 0.0 0.0 0.0 0.0 0.0 0.0 0.0 0.0 0.0 0.2 0.0 0.0 0.0 0.0 1.7 22.4 13.8 6.2 0.0 3.8 4.7 0.0 1.9 3.7 8.5 7.6 6.8 3.7 2.4 4.8 15.9 0.4 0.3 0.7 0.4 1.4 1.1 0.5 1.3 1.3 1.1 1.0 0.7 0.6 0.6 0.5
0.0 0.0 0.0 0.0 0.0 0.0 0.0 0.0 0.0 0.0 0.0 0.0 0.0 0.0 0.0 0.0 17.3 1.3 0.0 0.0 0.0 0.0 21.9 10.1 7.1 14.2 0.0 3.2 1.8 2.7 1.4 15.4 4.5 8.6 3.2 0.9 8.1 17.2 7.1 1.2 0.8 0.6 0.7 0.6 0.4 0.1 0.2 0.8 1.0 0.8 1.0 0.8 0.5 1.5
0.0 0.0 0.0 0.0 0.0 0.0 0.0 0.0 0.0 0.0 0.0 0.0 0.0 8.8 58.1 7.6 0.0 0.0 0.0 14.5 15.5 12.8 7.7 9.1 0.4 7.1 0.9 5.6 7.0 6.6 7.1 9.5 13.2 3.8 1.3 8.6 7.3 4.8 2.3 1.1 0.4 1.3 0.2 0.2 0.5 0.6 0.1 0.3 0.4 0.5 0.5 0.2 0.3 0.5
0.0 0.0 0.0 0.0 0.0 0.0 0.0 0.0 0.0 0.0 0.0 0.0 18.5 26.2 1.9 0.0 0.0 8.1 31.3 27.4 17.4 17.4 4.4 3.1 1.8 3.5 0.5 11.5 11.6 4.3 12.7 5.8 9.5 3.1 4.0 8.6 6.4 4.8 2.3 2.8 1.9 1.8 0.9 0.9 0.7 0.2 0.0 0.1 0.6 0.5 0.4 0.8 0.4 0.8
0.0 0.0 0.0 0.0 0.0 0.0 0.0 0.0 0.0 0.0 0.0 0.0 0.0 0.0 0.6 4.7 16.2 22.8 18.6 10.1 3.9 4.4 3.3 3.4 3.3 1.8 3.7 1.5 10.4 11.8 15.3 10.1 11.2 2.9 14.8 7.9 7.7 3.0 2.1 2.0 1.9 2.4 2.3 1.4 0.5 2.1 2.2 1.2 0.8 0.3 0.3 0.9 0.7 1.0
0.0 0.0 0.0 0.0 0.0 0.0 0.0 0.0 0.0 0.0 0.0 0.0 3.2 19.3 23.1 22.9 28.4 17.5 10.4 4.3 3.6 1.9 2.2 2.3 5.7 2.1 1.8 1.0 11.4 10.7 13.4 14.6 3.8 19.5 12.2 6.9 3.2 1.4 1.0 0.7 1.0 1.4 1.7 2.0 2.2 1.8 2.1 3.9 4.3 4.2 5.1 7.9 7.7 9.2
0.0 0.0 0.0 0.0 0.0 0.0 0.0 0.0 0.0 0.0 0.0 10.6 15.8 27.6 24.2 20.2 11.2 9.2 3.7 3.3 2.3 2.6 2.7 3.4 7.3 6.8 4.4 9.4 12.3 20.5 9.5 7.2 16.5 18.4 8.9 9.8 8.1 4.9 2.2 1.5 1.4 3.3 3.8 3.5 4.6 5.8 6.4 8.4 11.3 13.1 14.4 15.6 13.7 15.4
0.0 0.0 0.0 0.0 0.0 0.0 0.0 0.0 0.0 0.0 3.6 14.1 12.1 19.6 11.8 12.3 7.0 6.3 4.8 3.0 3.3 4.0 7.5 10.6 11.1 8.2 9.9 14.5 9.5 10.4 14.3 11.9 9.2 9.8 14.7 12.3 7.8 3.8 3.5 2.8 3.2 5.1 6.1 7.2 7.6 7.9 9.2 8.7 7.5 11.0 12.4 12.0 10.0 11.4
0.0 0.0 0.0 0.0 0.0 0.0 0.0 0.0 0.5 1.0 4.4 6.1 8.2 9.5 6.8 9.1 10.2 8.4 7.4 7.5 2.9 6.5 4.0 9.3 16.4 19.3 17.3 11.4 12.8 9.9 7.6 9.2 13.7 10.2 9.3 5.4 5.0 4.7 5.0 5.4 7.3 8.1 8.3 8.7 8.7 7.8 7.9 7.9 6.8 8.6 9.0 8.5 9.3 7.9
0.0 0.9 0.0 0.0 0.0 0.0 0.0 1.3 1.9 4.1 4.8 4.8 9.5 9.0 8.4 9.3 12.6 10.6 9.0 7.3 3.7 8.8 10.4 6.0 12.6 14.7 8.9 9.6 11.6 9.0 14.9 14.1 13.1 11.1 6.8 5.3 5.9 7.2 8.1 9.0 10.6 10.5 9.3 8.3 8.0 7.7 8.4 7.7 6.2 4.7 7.0 10.1 7.7 7.5
0.2 0.0 0.0 0.0 0.0 0.0 1.6 1.2 1.8 2.2 3.6 6.4 10.2 12.1 8.7 12.5 12.6 9.7 8.6 6.6 7.8 7.2 4.7 10.1 2.3 5.4 7.0 8.0 9.2 13.8 13.4 10.7 7.6 7.9 9.4 9.6 9.0 9.2 9.7 11.3 11.8 10.3 9.2 9.7 8.9 8.6 8.7 8.5 6.9 8.7 8.0 8.2 6.3 6.7
0.1 0.0 0.0 0.0 0.0 1.2 4.4 3.6 1.0 3.8 7.4 6.3 8.1 6.5 6.0 8.4 8.0 8.6 7.3 5.8 7.6 6.2 7.0 7.8 8.0 8.0 12.0 12.4 13.2 11.7 10.8 8.1 10.4 11.7 12.2 12.0 11.5 11.4 12.5 11.4 11.7 11.7 10.7 11.4 9.6 9.1 9.5 8.8 7.7 7.3 6.8 6.0 6.0 5.7
0.0 0.0 0.0 0.0 0.0 0.8 2.1 1.5 0.3 0.2 5.0 5.9 4.9 4.3 3.5 6.1 4.0 2.7 1.9 3.1 5.0 10.0 12.2 11.4 15.7 19.1 18.4 17.4 14.7 12.9 12.1 7.9 7.3 7.7 12.2 13.8 14.3 11.5 12.7 10.6 10.7 10.5 8.9 9.3 9.2 8.4 7.1 6.6 6.6 5.7 4.5 3.0 3.5 3.8
0.0 0.0 0.0 0.0 0.1 0.1 0.3 1.1 1.8 0.5 1.0 2.8 1.2 0.5 2.7 0.4 0.4 0.6 0.5 1.3 7.3 12.7 17.5 20.3 20.3 19.6 18.1 16.8 12.6 10.3 10.6 7.7 9.3 6.9 9.1 12.9 13.9 9.0 10.4 10.8 9.3 8.3 7.7 8.7 8.2 8.9 6.7 6.4 4.8 3.8 4.4 5.0 3.9 4.4
0.0 0.0 0.9 0.0 1.8 0.9 0.9 0.0 0.1 0.5 0.6 0.9 0.6 0.7 1.4 1.9 0.9 1.0 0.2 1.9 9.7 14.4 15.2 15.4 15.1 13.7 12.2 14.1 14.9 11.2 12.2 8.1 7.2 6.6 7.9 6.7 10.1 10.0 11.3 11.8 8.9 9.4 8.9 8.8 6.5 5.7 4.7 3.7 3.3 3.3 3.9 4.8 4.7 5.8
0.0 1.0 3.5 2.6 3.6 1.0 0.7 0.1 0.5 0.2 0.6 0.8 0.5 0.8 0.9 2.1 1.7 0.3 1.7 2.2 10.0 12.5 9.5 7.7 9.3 8.9 9.9 12.7 8.3 9.0 10.1 7.6 7.9 8.5 9.0 8.9 8.7 8.8 7.7 8.2 6.9 5.5 5.5 6.1 4.4 4.6 5.2 4.3 3.8 4.2 4.3 4.1 6.0 6.2
0.0 4.4 6.5 4.3 2.7 3.3 1.0 2.1 0.8 0.3 0.2 0.5 0.9 0.7 1.1 1.0 0.2 1.0 2.8 6.6 10.9 6.2 5.1 7.2 5.6 5.6 5.3 5.2 7.5 9.1 10.9 7.0 6.6 7.0 7.4 4.5 4.2 5.2 3.4 4.1 4.3 4.6 5.3 4.5 3.8 4.5 4.4 5.4 5.6 5.0 4.8 5.5 6.4 5.7
4.3 3.1 3.9 3.4 1.5 1.5 0.6 0.7 1.1 0.6 0.5 0.2 0.4 1.0 1.1 0.0 1.0 1.1 2.6 8.4 7.0 6.5 6.0 4.8 3.0 3.1 5.0 7.4 8.5 8.1 5.7 3.5 3.6 4.4 5.3 3.2 3.4 3.5 3.3 3.3 3.5 4.1 3.6 3.6 3.9 5.1 5.7 5.2 5.6 5.0 5.0 5.1 6.1 6.0
3.3 0.8 1.2 1.3 1.2 0.9 0.2 0.5 0.5 0.9 0.4 0.7 1.6 1.0 0.4 0.9 1.2 3.3 5.7 9.3 7.7 7.2 7.6 7.2 5.5 3.3 3.1 3.1 3.8 3.4 3.6 2.5 1.9 2.7 3.6 2.4 2.9 3.9 3.7 3.7 3.7 4.0 2.9 4.5 5.4 6.1 4.9 4.2 4.7 4.3 5.4 5.0 5.9 6.1
2.1 1.5 0.5 0.0 1.7 2.5 2.6 1.5 1.5 2.0 2.2 2.7 2.4 1.8 2.5 3.2 4.4 7.3 7.2 6.8 5.8 6.2 4.5 3.9 2.4 2.3 2.9 3.0 1.7 1.6 1.3 0.9 1.2 2.8 3.3 2.8 2.6 3.0 3.7 6.1 6.6 6.4 3.8 4.3 4.8 5.2 5.5 5.4 5.5 5.1 5.4 6.2 5.8 6.3
0.3 0.5 1.3 2.1 3.0 3.1 4.9 3.9 3.6 4.2 4.1 3.3 3.1 3.5 3.4 4.2 7.4 8.8 7.7 6.5 5.4 2.9 2.0 1.6 1.6 1.8 2.1 2.6 2.6 2.2 1.9 1.6 1.8 2.3 2.6 2.5 2.2 3.4 3.9 3.4 3.3 2.6 2.8 3.5 3.7 3.6 4.1 4.9 6.1 6.2 6.6 6.3 6.7 6.1
1.2 0.9 1.0 1.7 1.9 1.6 2.8 3.7 4.0 4.1 3.2 3.0 3.1 3.3 4.1 4.7 10.0 9.2 7.7 5.9 4.0 2.5 2.6 2.4 4.0 2.2 2.0 3.1 1.9 1.8 2.4 2.9 4.2 5.2 6.0 7.8 6.4 5.7 3.3 2.7 2.6 2.4 2.3 2.5 2.3 2.7 3.6 4.3 5.5 5.3 6.7 6.7 7.2 7.3
0.7 0.6 0.7 0.3 0.5 0.7 4.2 2.0 2.6 2.2 0.5 1.4 1.0 0.9 1.2 7.9 11.7 8.3 6.8 5.0 4.6 5.6 6.8 5.2 4.7 2.6 3.9 1.9 4.4 3.1 3.4 3.7 4.4 5.9 7.4 7.0 6.7 5.1 2.8 2.4 1.9 2.1 2.1 2.5 2.7 2.8 2.8 2.4 3.2 3.4 4.6 5.2 7.0 8.1
1.0 1.8 2.4 2.0 2.3 3.5 2.8 1.3 1.6 1.8 2.2 2.3 2.4 2.4 4.1 6.2 8.7 5.4 5.6 7.8 4.8 3.8 3.0 3.5 3.7 4.4 4.2 4.3 5.5 5.0 6.8 5.3 4.9 5.3 6.1 6.5 4.9 3.4 2.7 2.1 2.2 1.9 2.1 1.9 2.3 2.5 3.3 3.4 4.7 5.5 4.7 5.1 5.5 6.3
2.1 4.1 4.5 4.0 5.1 3.4 3.8 5.6 3.6 4.2 3.6 3.7 4.0 2.1 4.6 4.9 3.7 6.4 4.9 4.9 5.2 5.3 5.1 5.6 5.9 7.1 7.0 8.0 7.4 7.2 6.6 5.7 4.5 4.0 4.0 3.8 3.9 3.1 2.4 1.7 2.2 2.5 2.4 2.2 2.4 2.3 2.7 3.9 5.0 5.4 6.0 5.4 5.8 5.6
2.9 3.3 3.7 4.7 5.3 5.3 4.5 5.9 5.1 5.8 5.0 4.7 5.4 5.6 5.8 4.6 6.1 9.2 4.4 5.0 10.9 11.2 9.3 8.7 9.0 8.9 9.2 7.5 6.3 6.5 6.1 5.6 4.6 3.4 3.2 2.6 2.0 1.6 1.4 1.9 1.9 2.5 2.7 2.9 3.0 2.9 3.1 3.0 3.6 3.7 3.5 3.8 3.8 3.4

GFSWCAN_prec_kuchsnow_252.txt.gz
Snowfall_Accumulation
0.0 0.0 0.0 0.0 0.0 0.0 0.0 0.0 0.0 0.0 0.0 0.0 0.0 0.0 0.0 0.0 0.0 0.0 0.0 0.0 0.0 17.3 3.5 0.0 0.0 0.4 0.5 0.2 2.8 3.3 3.5 5.7 5.1 9.7 14.3 15.2 10.8 2.3 1.2 0.9 3.5 2.0 7.3 9.4 8.6 18.1 15.8 0.0 0.0 1.5 2.3 0.4 0.2 0.2
0.0 0.0 0.0 0.0 0.0 0.0 0.0 0.0 0.0 0.0 0.0 0.0 0.0 0.0 0.0 0.0 0.0 0.0 0.0 0.0 0.0 2.1 5.5 0.0 0.0 0.0 0.0 0.0 0.0 0.0 0.6 0.4 0.6 5.2 4.1 3.1 12.5 6.0 3.4 6.3 0.0 9.3 2.1 5.8 5.7 5.7 1.0 0.1 0.8 0.5 0.3 0.2 0.2 0.0
0.0 0.0 0.0 0.0 0.0 0.0 0.0 0.0 0.0 0.0 0.0 0.0 0.0 0.0 0.0 0.0 0.0 0.0 0.0 0.0 0.0 8.8 9.5 0.0 1.9 0.0 0.0 0.0 0.0 1.6 0.0 0.0 0.0 0.0 5.9 6.1 17.1 3.0 8.7 3.2 2.4 2.2 0.9 5.2 2.6 1.9 0.4 0.1 0.1 0.1 0.1 0.1 0.0 0.1
0.0 0.0 0.0 0.0 0.0 0.0 0.0 0.0 0.0 0.0 0.0 0.0 0.0 0.0 0.0 0.0 0.0 0.0 0.0 0.0 0.0 1.1 26.7 15.1 0.0 0.0 0.0 0.0 0.0 0.0 0.0 0.0 0.0 0.0 20.4 22.6 19.1 4.4 9.1 2.4 1.8 0.7 2.0 6.5 5.3 2.5 1.3 0.6 0.6 0.8 0.2 0.0 0.0 0.0
0.0 0.0 0.0 0.0 0.0 0.0 0.0 0.0 0.0 0.0 0.0 0.0 0.0 0.0 0.0 0.0 0.0 0.0 0.0 0.0 0.0 0.0 20.3 8.7 0.3 0.0 0.0 0.0 0.0 0.0 0.0 0.0 2.8 18.5 25.9 19.3 6.1 5.8 5.6 4.7 6.0 1.1 5.7 5.3 15.6 6.7 3.6 3.3 2.2 1.4 1.1 0.1 0.1 0.0
0.0 0.0 0.0 0.0 0.0 0.0 0.0 0.0 0.0 0.0 0.0 0.0 0.0 0.0 0.0 0.0 0.0 0.0 22.5 0.0 0.0 0.0 4.4 15.2 1.3 1.2 0.0 0.0 0.0 0.0 0.0 0.0 2.2 12.1 17.1 8.6 0.0 0.9 14.1 8.0 1.0 1.1 1.5 2.2 5.5 5.4 3.8 3.7 2.7 1.9 1.8 1.3 0.1 0.0
0.0 0.0 0.0 0.0 0.0 0.0 0.0 0.0 0.0 0.0 0.0 0.0 0.0 0.0 0.0 0.0 0.0 3.3 7.1 0.0 0.0 0.0 9.4 21.4 9.8 1.4 0.0 0.0 0.0 0.0 0.0 0.4 1.4 7.6 13.2 5.5 1.0 0.5 10.8 8.9 1.2 1.4 1.5 1.8 1.7 1.9 3.6 3.4 3.8 1.7 0.9 0.9 0.5 0.4
0.0 0.0 0.0 0.0 0.0 0.0 0.0 0.0 0.0 0.0 0.0 0.0 0.0 0.0 0.0 0.0 0.0 0.2 0.0 0.0 0.0 0.0 3.1 23.9 15.3 8.7 0.0 4.4 5.7 0.0 2.1 3.9 9.4 7.8 7.5 3.9 2.7 5.5 17.0 0.4 0.3 0.7 0.4 1.4 1.1 0.5 1.3 1.3 1.1 1.0 0.7 0.6 0.6 0.5
0.0 0.0 0.0 0.0 0.0 0.0 0.0 0.0 0.0 0.0 0.0 0.0 0.0 0.0 0.0 0.0 17.3 1.3 0.0 0.0 0.0 0.0 22.7 11.0 8.8 17.2 1.3 5.3 3.3 4.4 2.3 18.0 5.5 10.0 3.9 1.1 9.5 19.2 7.1 1.2 0.8 0.6 0.7 0.6 0.4 0.1 0.2 0.8 1.0 0.8 1.0 0.8 0.5 1.5
0.0 0.0 0.0 0.0 0.0 0.0 0.0 0.0 0.0 0.0 0.0 0.0 0.0 8.8 58.7 7.6 0.0 0.0 0.0 15.9 16.6 13.4 8.0 9.5 0.4 9.1 2.0 7.9 9.3 9.1 8.8 11.3 15.3 4.7 1.6 9.6 7.6 4.8 2.3 1.1 0.4 1.3 0.2 0.2 0.5 0.6 0.1 0.3 0.4 0.5 0.5 0.2 0.3 0.5
0.0 0.0 0.0 0.0 0.0 0.0 0.0 0.0 0.0 0.0 0.0 0.0 18.5 26.4 1.9 0.0 0.0 8.1 32.3 27.7 17.6 18.0 4.4 3.1 2.1 4.2 1.0 14.6 14.0 5.4 14.3 7.1 10.7 3.5 4.6 9.1 6.5 4.8 2.3 2.8 1.9 1.8 0.9 0.9 0.7 0.2 0.0 0.1 0.6 0.5 0.4 0.8 0.4 0.8
0.0 0.0 0.0 0.0 0.0 0.0 0.0 0.0 0.0 0.0 0.0 0.0 0.0 0.0 0.6 4.7 16.4 23.5 19.1 10.5 4.6 4.9 3.8 3.8 4.0 2.6 4.9 2.5 13.3 15.3 18.2 11.7 11.7 3.4 15.1 8.4 7.7 3.0 2.1 2.0 1.9 2.4 2.3 1.4 0.5 2.1 2.2 1.2 0.8 0.3 0.3 0.9 0.7 1.0
0.0 0.0 0.0 0.0 0.0 0.0 0.0 0.0 0.0 0.0 0.0 0.0 3.2 19.3 23.1 23.1 29.1 18.2 10.7 4.7 4.1 2.0 2.4 2.7 6.7 3.1 2.9 1.7 12.9 13.5 17.6 17.4 4.9 21.0 13.1 6.9 3.2 1.4 1.0 0.7 1.2 1.4 1.7 2.0 2.2 1.8 2.1 3.9 4.3 4.2 5.1 7.9 7.7 9.2
0.0 0.0 0.0 0.0 0.0 0.0 0.0 0.0 0.0 0.0 0.0 10.6 15.8 27.7 24.2 20.3 11.5 9.6 3.8 3.6 2.5 2.6 2.9 3.7 7.6 7.1 4.6 9.8 12.7 21.3 10.4 8.0 17.9 19.3 9.4 10.0 8.2 5.0 2.5 1.6 1.4 3.7 4.0 3.6 4.7 5.8 6.4 8.4 11.3 13.1 14.4 15.6 13.7 15.4
0.0 0.0 0.0 0.0 0.0 0.0 0.0 0.0 0.0 0.0 3.6 14.1 12.1 19.6 11.9 12.4 7.0 6.6 5.1 3.4 3.4 4.0 7.5 10.7 11.2 8.2 10.0 14.5 9.5 10.4 14.3 12.1 9.2 9.8 14.7 12.4 8.1 4.3 4.1 3.0 3.3 5.1 6.2 7.3 7.6 7.9 9.2 8.7 7.5 11.1 12.4 12.0 10.0 11.4
0.0 0.0 0.0 0.0 0.0 0.0 0.0 0.0 0.5 1.0 4.4 6.1 8.2 9.5 6.8 9.1 10.5 8.6 7.4 7.5 2.9 6.5 4.0 9.3 16.4 19.3 17.3 11.4 12.8 9.9 7.6 9.2 13.7 10.2 9.3 5.4 5.1 4.8 5.1 5.4 7.3 8.1 8.3 8.7 8.7 7.8 7.9 7.9 6.8 8.6 9.0 8.5 9.3 7.9
0.0 0.9 0.0 0.0 0.0 0.0 0.0 1.3 1.9 4.1 4.8 4.8 9.5 9.0 8.4 9.3 12.6 10.6 9.0 7.3 3.7 8.8 10.4 6.0 12.6 14.7 8.9 9.6 11.6 9.0 14.9 14.1 13.1 11.1 6.8 5.3 5.9 7.2 8.1 9.0 10.6 10.5 9.3 8.3 8.0 7.7 8.4 7.7 6.2 4.7 7.0 10.1 7.7 7.5
0.2 0.0 0.0 0.0 0.0 0.0 1.6 1.2 1.8 2.2 3.6 6.4 10.2 12.1 8.7 12.5 12.6 9.7 8.6 6.6 7.8 7.2 4.7 10.1 2.3 5.4 7.0 8.0 9.2 13.8 13.4 10.7 7.6 7.9 9.4 9.6 9.0 9.2 9.7 11.3 11.8 10.3 9.2 9.7 8.9 8.6 8.7 8.5 6.9 8.7 8.0 8.2 6.3 6.7
0.1 0.0 0.0 0.0 0.0 1.2 4.4 3.6 1.0 3.8 7.4 6.3 8.1 6.5 6.0 8.4 8.0 8.6 7.3 5.8 7.6 6.2 7.0 7.8 8.0 8.0 12.0 12.4 13.2 11.7 10.8 8.1 10.4 11.7 12.2 12.0 11.5 11.4 12.5 11.4 11.7 11.7 10.7 11.4 9.6 9.1 9.5 8.8 7.7 7.3 6.8 6.0 6.0 5.7
0.0 0.0 0.0 0.0 0.0 0.8 2.1 1.5 0.3 0.2 5.0 5.9 4.9 4.3 3.5 6.1 4.0 2.7 1.9 3.1 5.0 10.0 12.2 11.4 15.7 19.1 18.4 17.4 14.7 12.9 12.1 7.9 7.3 7.7 12.2 13.8 14.3 11.5 12.7 10.6 10.7 10.5 8.9 9.3 9.2 8.4 7.1 6.6 6.6 5.7 4.5 3.0 3.5 3.8
0.0 0.0 0.0 0.0 0.1 0.1 0.3 1.1 1.8 0.5 1.0 2.8 1.2 0.5 2.7 0.4 0.4 0.6 0.5 1.3 7.3 12.7 17.5 20.3 20.3 19.6 18.1 16.8 12.6 10.3 10.6 7.7 9.3 6.9 9.1 12.9 13.9 9.0 10.4 10.8 9.3 8.3 7.7 8.7 8.2 8.9 6.7 6.4 4.8 3.8 4.4 5.0 3.9 4.4
0.0 0.0 0.9 0.0 1.8 0.9 0.9 0.0 0.1 0.5 0.6 0.9 0.6 0.7 1.4 1.9 0.9 1.0 0.2 1.9 9.7 14.4 15.2 15.4 15.1 13.7 12.2 14.1 14.9 11.2 12.2 8.1 7.2 6.6 7.9 6.7 10.1 10.0 11.3 11.8 8.9 9.4 8.9 8.8 6.5 5.7 4.7 3.7 3.3 3.3 3.9 4.8 4.7 5.8
0.0 1.0 3.5 2.6 3.6 1.0 0.7 0.1 0.5 0.2 0.6 0.8 0.5 0.8 0.9 2.1 1.7 0.3 1.7 2.2 10.0 12.5 9.5 7.7 9.3 8.9 9.9 12.7 8.3 9.0 10.1 7.6 7.9 8.5 9.0 8.9 8.7 8.8 7.7 8.2 6.9 5.5 5.5 6.1 4.4 4.6 5.2 4.3 3.8 4.3 4.3 4.1 6.0 6.2
0.0 4.4 6.5 4.3 2.7 3.3 1.0 2.1 0.8 0.3 0.2 0.5 0.9 0.7 1.1 1.0 0.2 1.0 2.8 6.6 10.9 6.2 5.1 7.2 5.6 5.6 5.3 5.2 7.5 9.1 10.9 7.0 6.6 7.0 7.4 4.5 4.2 5.2 3.4 4.1 4.3 4.6 5.3 4.5 3.8 4.5 4.4 5.4 5.6 5.0 4.8 5.5 6.4 5.7
4.3 3.1 3.9 3.4 1.5 1.5 0.6 0.7 1.1 0.6 0.5 0.2 0.4 1.0 1.1 0.0 1.0 1.1 2.6 8.4 7.0 6.5 6.0 4.8 3.0 3.1 5.0 7.4 8.5 8.1 5.7 3.5 3.6 4.4 5.3 3.2 3.4 3.5 3.3 3.3 3.5 4.1 3.6 3.6 3.9 5.1 5.7 5.2 5.6 5.0 5.0 5.1 6.1 6.0
3.3 0.8 1.2 1.3 1.2 0.9 0.2 0.5 0.5 0.9 0.4 0.7 1.6 1.0 0.4 0.9 1.2 3.3 5.7 9.3 7.7 7.2 7.6 7.2 5.5 3.3 3.1 3.1 3.8 3.4 3.6 2.5 1.9 2.7 3.6 2.4 2.9 3.9 3.7 3.7 3.7 4.1 2.9 4.5 5.4 6.1 4.9 4.2 4.7 4.3 5.4 5.0 5.9 6.1
2.1 1.5 0.5 0.0 1.7 2.5 2.6 1.5 1.5 2.0 2.2 2.7 2.4 1.8 2.5 3.2 4.4 7.3 7.2 6.8 5.8 6.2 4.5 3.9 2.4 2.3 2.9 3.0 1.7 1.6 1.3 0.9 1.2 2.8 3.3 2.8 2.6 3.0 3.7 6.1 6.6 6.4 3.8 4.3 4.8 5.2 5.5 5.4 5.5 5.1 5.4 6.2 5.8 6.3
0.3 0.5 1.3 2.1 3.0 3.1 4.9 3.9 3.6 4.2 4.1 3.3 3.1 3.5 3.4 4.2 7.4 8.8 7.7 6.5 5.4 2.9 2.0 1.6 1.6 1.8 2.1 2.6 2.6 2.2 1.9 1.6 1.8 2.3 2.6 2.5 2.2 3.4 3.9 3.4 3.3 2.6 2.8 3.5 3.7 3.6 4.1 4.9 6.1 6.2 6.6 6.3 6.7 6.1
1.2 0.9 1.0 1.7 1.9 1.6 2.8 3.7 4.0 4.1 3.2 3.0 3.1 3.3 4.1 4.7 10.1 9.2 7.7 5.9 4.0 2.5 2.6 2.4 4.0 2.2 2.0 3.1 1.9 1.8 2.4 2.9 4.2 5.2 6.0 7.8 6.4 5.7 3.3 2.7 2.6 2.4 2.3 2.5 2.3 2.7 3.6 4.3 5.5 5.3 6.7 6.7 7.2 7.3
0.7 0.6 0.7 0.3 0.5 0.7 4.2 2.0 2.6 2.2 0.5 1.4 1.0 0.9 1.2 8.0 11.8 8.3 6.8 5.0 4.6 5.6 6.8 5.2 4.7 2.6 3.9 1.9 4.4 3.1 3.4 3.7 4.4 5.9 7.4 7.0 6.7 5.1 2.8 2.4 1.9 2.1 2.1 2.5 2.7 2.8 2.8 2.4 3.2 3.4 4.6 5.2 7.0 8.1
1.0 1.8 2.4 2.0 2.3 3.5 2.8 1.3 1.6 1.8 2.2 2.3 2.4 2.4 4.1 6.3 8.9 5.5 5.6 7.8 4.8 3.8 3.0 3.5 3.7 4.4 4.4 4.3 5.5 5.0 7.3 5.4 4.9 5.3 6.1 6.5 4.9 3.4 2.7 2.1 2.2 1.9 2.1 1.9 2.3 2.5 3.3 3.4 4.7 5.5 4.7 5.1 5.5 6.3
2.1 4.1 4.5 4.1 5.2 3.4 3.9 5.6 3.6 4.3 3.7 3.8 4.1 2.1 4.7 5.0 3.9 6.6 5.1 5.0 5.2 5.4 5.1 5.6 5.9 7.1 7.0 8.1 7.5 7.3 6.9 6.0 4.5 4.0 4.0 3.8 3.9 3.1 2.4 1.7 2.2 2.5 2.4 2.2 2.4 2.3 2.7 3.9 5.0 5.4 6.0 5.4 5.8 5.6
2.9 3.3 3.7 4.7 5.4 5.4 4.5 5.9 5.1 5.8 5.0 4.7 5.5 5.6 5.9 4.6 6.2 9.5 4.6 5.2 11.2 11.4 9.4 8.8 9.1 8.9 9.2 7.5 6.3 6.5 6.2 5.8 5.1 3.4 3.2 2.6 2.0 1.6 1.4 1.9 1.9 2.5 2.7 2.9 3.0 2.9 3.1 3.0 3.6 3.7 3.5 3.8 3.8 3.4

GFSWCAN_prec_kuchsnow_258.txt.gz
Snowfall_Accumulation
0.0 0.0 0.0 0.0 0.0 0.0 0.0 0.0 0.0 0.0 0.0 0.0 0.0 0.0 0.0 0.0 0.0 0.0 0.0 0.0 0.0 17.6 3.5 0.0 0.0 0.4 0.5 0.2 3.2 3.3 3.5 5.7 5.2 11.0 15.3 15.6 11.2 2.3 1.2 0.9 3.5 2.0 7.3 11.0 8.9 18.6 16.3 0.0 0.0 1.5 2.3 0.4 0.2 0.2
0.0 0.0 0.0 0.0 0.0 0.0 0.0 0.0 0.0 0.0 0.0 0.0 0.0 0.0 0.0 0.0 0.0 0.0 0.0 0.0 0.0 2.1 5.5 0.0 0.0 0.0 0.0 0.0 0.0 0.0 0.6 0.4 1.0 5.9 4.3 3.2 13.2 6.1 3.6 6.7 0.0 9.3 2.1 5.9 6.5 5.7 1.0 0.1 0.8 0.5 0.3 0.2 0.2 0.0
0.0 0.0 0.0 0.0 0.0 0.0 0.0 0.0 0.0 0.0 0.0 0.0 0.0 0.0 0.0 0.0 0.0 0.0 0.0 0.0 0.0 8.8 9.5 0.0 1.9 0.0 0.0 0.0 0.0 1.7 0.0 0.0 0.0 0.0 6.0 7.1 19.3 3.3 9.7 3.4 2.4 2.2 0.9 5.2 2.6 1.9 0.4 0.1 0.1 0.1 0.1 0.1 0.0 0.1
0.0 0.0 0.0 0.0 0.0 0.0 0.0 0.0 0.0 0.0 0.0 0.0 0.0 0.0 0.0 0.0 0.0 0.0 0.0 0.0 0.0 1.1 30.3 15.3 0.0 0.0 0.0 0.0 0.0 0.0 0.0 0.0 0.0 0.0 21.2 24.2 20.2 4.4 9.5 2.6 2.2 0.7 2.0 6.7 5.8 2.5 1.3 0.6 0.6 0.8 0.2 0.0 0.0 0.0
0.0 0.0 0.0 0.0 0.0 0.0 0.0 0.0 0.0 0.0 0.0 0.0 0.0 0.0 0.0 0.0 0.0 0.0 0.0 0.0 0.0 0.0 22.5 8.9 0.3 0.0 0.0 0.0 0.0 0.0 0.0 0.0 2.8 19.1 27.6 20.6 6.2 6.0 5.7 4.7 6.2 1.1 5.7 5.3 15.6 6.7 3.6 3.3 2.2 1.4 1.1 0.1 0.1 0.0
0.0 0.0 0.0 0.0 0.0 0.0 0.0 0.0 0.0 0.0 0.0 0.0 0.0 0.0 0.0 0.0 0.0 0.0 22.5 0.0 0.0 0.0 5.9 17.1 1.3 1.2 0.0 0.0 0.0 0.0 0.0 0.0 2.2 12.4 17.7 8.7 0.0 1.1 15.8 8.7 1.0 1.1 1.5 2.2 5.5 5.4 3.8 3.7 2.7 1.9 1.8 1.3 0.1 0.0
0.0 0.0 0.0 0.0 0.0 0.0 0.0 0.0 0.0 0.0 0.0 0.0 0.0 0.0 0.0 0.0 0.0 3.3 7.5 0.0 0.0 0.0 15.2 24.6 9.9 1.4 0.0 0.0 0.0 0.0 0.0 0.4 1.4 7.9 13.9 5.6 1.0 0.5 11.9 9.7 1.2 1.4 1.5 1.8 1.7 1.9 3.6 3.4 3.8 1.7 0.9 0.9 0.5 0.4
0.0 0.0 0.0 0.0 0.0 0.0 0.0 0.0 0.0 0.0 0.0 0.0 0.0 0.0 0.0 0.0 0.0 0.2 0.0 0.0 0.0 0.0 5.3 26.0 15.4 8.7 0.0 4.4 5.8 0.0 2.1 3.9 9.8 8.4 7.6 4.0 2.7 5.5 18.1 0.4 0.3 0.7 0.4 1.4 1.1 0.5 1.3 1.3 1.1 1.0 0.7 0.6 0.6 0.5
0.0 0.0 0.0 0.0 0.0 0.0 0.0 0.0 0.0 0.0 0.0 0.0 0.0 0.0 0.0 0.0 17.3 1.3 0.0 0.0 0.0 0.0 24.0 11.5 8.8 17.5 1.3 5.3 3.3 4.4 2.3 19.0 5.5 10.6 4.0 1.1 9.7 19.9 7.1 1.2 0.8 0.6 0.7 0.6 0.4 0.1 0.2 0.8 1.0 0.8 1.0 0.8 0.5 1.5
0.0 0.0 0.0 0.0 0.0 0.0 0.0 0.0 0.0 0.0 0.0 0.0 0.0 8.8 58.8 7.6 0.0 0.0 0.0 15.9 18.5 13.4 8.4 9.7 0.4 9.3 2.0 8.2 10.1 10.2 9.9 12.2 16.8 4.8 1.6 10.0 7.7 4.8 2.3 1.1 0.4 1.3 0.2 0.2 0.5 0.6 0.1 0.3 0.4 0.5 0.5 0.2 0.3 0.5
0.0 0.0 0.0 0.0 0.0 0.0 0.0 0.0 0.0 0.0 0.0 0.0 18.5 26.4 1.9 0.0 0.0 8.1 32.4 28.2 17.6 18.4 4.5 3.1 2.1 4.2 1.0 15.5 15.5 6.1 16.4 7.7 11.7 3.5 4.6 9.3 6.5 4.8 2.3 2.8 1.9 1.8 0.9 0.9 0.7 0.2 0.0 0.1 0.6 0.5 0.4 0.8 0.4 0.8
0.0 0.0 0.0 0.0 0.0 0.0 0.0 0.0 0.0 0.0 0.0 0.0 0.0 0.0 0.6 4.7 16.5 23.9 19.5 10.6 4.7 5.0 3.8 3.8 4.0 2.6 5.2 2.5 14.7 17.2 19.8 13.2 13.2 3.4 16.1 8.7 7.8 3.0 2.1 2.0 1.9 2.4 2.3 1.4 0.5 2.1 2.2 1.2 0.8 0.6 1.3 2.0 1.5 1.5
0.0 0.0 0.0 0.0 0.0 0.0 0.0 0.0 0.0 0.0 0.0 0.0 3.2 19.3 23.1 23.1 29.7 18.8 11.2 4.8 4.2 2.0 2.4 3.0 7.6 3.7 3.6 1.7 13.6 14.1 19.2 18.4 5.1 22.3 13.5 7.2 3.2 1.4 1.1 0.7 1.2 1.4 1.7 2.0 3.5 3.8 3.1 4.5 4.9 4.6 6.0 8.6 8.1 9.4
0.0 0.0 0.0 0.0 0.0 0.0 0.0 0.0 0.0 0.0 0.0 10.6 15.8 28.1 24.4 20.8 11.6 9.6 3.8 3.7 2.5 2.6 2.9 3.9 8.2 7.8 5.2 10.9 13.0 22.7 10.7 8.4 18.8 20.2 10.1 10.0 8.2 5.2 2.8 2.3 2.3 5.0 5.2 5.4 7.7 8.4 8.4 9.9 12.6 13.9 14.8 15.8 13.8 15.4
0.0 0.0 0.0 0.0 0.0 0.0 0.0 0.0 0.0 0.0 3.6 14.1 12.1 19.9 12.0 12.4 7.0 6.6 5.1 3.4 3.4 4.0 7.5 10.9 11.2 8.4 10.3 15.2 9.9 10.7 15.4 13.1 9.9 10.6 15.1 12.7 8.8 5.4 5.9 5.1 5.2 7.1 8.0 8.7 9.2 9.7 10.8 9.8 8.1 11.7 12.6 12.1 10.0 11.4
0.0 0.0 0.0 0.0 0.0 0.0 0.0 0.0 0.5 1.0 4.4 6.1 8.2 9.5 6.8 9.2 10.6 8.6 7.4 7.5 2.9 6.5 4.0 9.3 16.5 19.5 17.4 11.4 12.9 9.9 7.7 9.3 13.9 10.3 9.4 5.8 6.0 6.5 7.1 7.1 8.6 9.1 8.8 9.1 8.9 7.8 8.0 8.0 6.8 8.7 9.0 8.5 9.3 7.9
0.0 0.9 0.0 0.0 0.0 0.0 0.0 1.3 1.9 4.1 4.8 4.8 9.5 9.0 8.4 9.3 12.6 10.6 9.0 7.3 3.7 8.8 10.5 6.0 12.6 14.8 8.9 9.6 11.6 9.0 14.9 14.2 13.1 11.2 6.8 5.4 6.5 8.2 8.9 9.6 10.9 10.6 9.3 8.4 8.1 7.7 8.4 7.7 6.2 4.7 7.0 10.1 7.7 7.5
0.2 0.0 0.0 0.0 0.0 0.0 1.6 1.2 1.8 2.2 3.6 6.4 10.2 12.1 8.7 12.5 12.6 9.7 8.6 6.6 7.8 7.2 4.7 10.1 2.3 5.4 7.0 8.0 9.2 13.8 13.4 10.7 7.6 7.9 9.4 9.8 9.2 9.5 9.8 11.3 11.8 10.3 9.2 9.7 8.9 8.6 8.7 8.5 6.9 8.7 8.0 8.2 6.3 6.7
0.1 0.0 0.0 0.0 0.0 1.2 4.4 3.6 1.0 3.8 7.4 6.3 8.1 6.5 6.0 8.4 8.0 8.6 7.3 5.8 7.6 6.2 7.0 7.8 8.0 8.0 12.0 12.4 13.2 11.7 10.8 8.1 10.5 11.7 12.2 12.1 11.5 11.4 12.5 11.4 11.7 11.7 10.7 11.4 9.6 9.1 9.5 8.8 7.7 7.3 6.8 6.0 6.0 5.7
0.0 0.0 0.0 0.0 0.0 0.8 2.1 1.5 0.3 0.2 5.0 5.9 4.9 4.3 3.5 6.1 4.0 2.7 1.9 3.1 5.0 10.0 12.2 11.4 15.7 19.1 18.4 17.4 14.7 12.9 12.1 7.9 7.3 7.7 12.2 13.8 14.3 11.5 12.7 10.6 10.7 10.5 8.9 9.3 9.2 8.4 7.1 6.6 6.6 5.7 4.5 3.0 3.5 3.8
0.0 0.0 0.0 0.0 0.1 0.1 0.3 1.1 1.8 0.5 1.0 2.8 1.2 0.5 2.7 0.4 0.4 0.6 0.5 1.3 7.3 12.7 17.5 20.3 20.3 19.6 18.1 16.8 12.6 10.3 10.6 7.7 9.3 6.9 9.1 12.9 13.9 9.0 10.4 10.8 9.3 8.3 7.7 8.7 8.2 8.9 6.7 6.4 4.8 3.8 4.4 5.0 3.9 4.4
0.0 0.0 0.9 0.0 1.8 0.9 0.9 0.0 0.1 0.5 0.6 0.9 0.6 0.7 1.4 1.9 0.9 1.0 0.2 1.9 9.7 14.4 15.2 15.4 15.1 13.7 12.2 14.1 14.9 11.2 12.2 8.1 7.2 6.6 7.9 6.7 10.1 10.0 11.3 11.8 8.9 9.4 8.9 8.8 6.5 5.7 4.7 3.7 3.3 3.3 3.9 4.8 4.7 5.8
0.0 1.0 3.5 2.6 3.6 1.0 0.7 0.1 0.5 0.2 0.6 0.8 0.5 0.8 0.9 2.1 1.7 0.3 1.7 2.2 10.0 12.5 9.5 7.7 9.3 8.9 9.9 12.7 8.3 9.0 10.1 7.6 7.9 8.5 9.0 8.9 8.7 8.8 7.7 8.2 6.9 5.5 5.6 6.1 4.4 4.6 5.2 4.3 3.8 4.3 4.3 4.1 6.0 6.2
0.0 4.4 6.5 4.3 2.7 3.3 1.0 2.1 0.8 0.3 0.2 0.5 0.9 0.7 1.1 1.0 0.2 1.0 2.8 6.6 10.9 6.2 5.1 7.2 5.6 5.6 5.3 5.2 7.5 9.1 10.9 7.0 6.6 7.0 7.4 4.5 4.2 5.2 3.4 4.1 4.3 4.6 5.3 4.5 3.8 4.5 4.4 5.4 5.6 5.0 4.8 5.5 6.4 5.7
4.3 3.1 3.9 3.4 1.5 1.5 0.6 0.7 1.1 0.6 0.5 0.2 0.4 1.0 1.1 0.0 1.0 1.1 2.6 8.4 7.0 6.5 6.0 4.8 3.0 3.1 5.0 7.4 8.5 8.1 5.7 3.5 3.6 4.4 5.3 3.2 3.4 3.5 3.3 3.3 3.5 4.1 3.6 3.6 3.9 5.1 5.7 5.2 5.6 5.1 5.0 5.1 6.1 6.0
3.3 0.8 1.2 1.3 1.2 0.9 0.2 0.5 0.5 0.9 0.4 0.7 1.6 1.0 0.4 0.9 1.2 3.3 5.7 9.3 7.7 7.2 7.6 7.2 5.5 3.3 3.1 3.1 3.8 3.4 3.6 2.5 1.9 2.7 3.6 2.4 2.9 3.9 3.7 3.7 3.7 4.1 2.9 4.5 5.4 6.1 4.9 4.2 4.7 4.3 5.4 5.0 5.9 6.1
2.1 1.5 0.5 0.0 1.7 2.5 2.6 1.5 1.5 2.0 2.2 2.7 2.4 1.8 2.5 3.2 4.4 7.3 7.2 6.8 5.8 6.2 4.5 3.9 2.4 2.3 2.9 3.0 1.7 1.6 1.3 0.9 1.2 2.8 3.3 2.8 2.6 3.0 3.7 6.1 6.6 6.4 3.8 4.3 4.8 5.2 5.5 5.4 5.5 5.1 5.4 6.2 5.8 6.3
0.3 0.5 1.3 2.1 3.0 3.1 4.9 3.9 3.6 4.2 4.1 3.3 3.1 3.5 3.4 4.2 7.4 8.8 7.7 6.5 5.4 2.9 2.0 1.6 1.6 1.8 2.1 2.6 2.6 2.2 1.9 1.6 1.8 2.3 2.6 2.5 2.2 3.4 3.9 3.4 3.3 2.6 2.8 3.5 3.7 3.6 4.1 4.9 6.1 6.2 6.6 6.3 6.7 6.1
1.2 0.9 1.0 1.7 1.9 1.6 2.8 3.7 4.0 4.1 3.2 3.0 3.2 3.3 4.1 4.7 10.1 9.3 7.8 5.9 4.0 2.5 2.6 2.4 4.0 2.2 2.0 3.1 1.9 1.8 2.4 2.9 4.2 5.2 6.0 7.8 6.4 5.7 3.3 2.7 2.6 2.4 2.3 2.5 2.3 2.7 3.6 4.3 5.5 5.3 6.7 6.7 7.2 7.3
0.7 0.6 0.7 0.3 0.5 0.7 4.2 2.0 2.6 2.2 0.5 1.4 1.0 0.9 1.2 8.0 12.0 8.4 6.8 5.0 4.6 5.6 6.8 5.2 4.7 2.6 4.0 1.9 4.4 3.1 3.4 3.7 4.4 5.9 7.4 7.0 6.7 5.1 2.8 2.4 1.9 2.1 2.1 2.5 2.7 2.9 2.8 2.4 3.2 3.4 4.6 5.2 7.0 8.1
1.0 1.8 2.5 2.0 2.3 3.6 2.9 1.3 1.6 1.8 2.2 2.3 2.4 2.4 4.1 6.5 9.1 5.5 5.6 7.8 4.8 3.8 3.1 3.5 3.7 4.5 4.5 4.4 5.5 5.1 7.4 5.4 4.9 5.3 6.1 6.5 4.9 3.4 2.7 2.1 2.2 1.9 2.1 1.9 2.3 2.5 3.3 3.4 4.7 5.6 4.8 5.1 5.5 6.3
2.2 4.2 4.6 4.2 5.3 3.4 3.9 5.7 3.6 4.3 3.8 4.0 4.2 2.1 4.9 5.1 4.1 6.8 5.2 5.1 5.4 5.4 5.1 5.6 5.9 7.2 7.0 8.2 7.7 7.4 7.1 6.2 4.5 4.0 4.0 3.8 3.9 3.1 2.4 1.7 2.2 2.5 2.4 2.2 2.4 2.3 2.7 3.9 5.0 5.4 6.0 5.4 5.8 5.6
3.0 3.4 3.9 5.0 5.6 5.5 4.6 6.1 5.3 6.1 5.4 5.3 5.9 5.8 6.2 4.9 6.4 9.7 4.7 5.3 11.2 11.4 9.4 8.9 9.1 8.9 9.2 7.5 6.3 6.6 6.2 5.9 5.2 3.5 3.2 2.6 2.0 1.7 1.4 1.9 1.9 2.5 2.7 2.9 3.0 2.9 3.1 3.0 3.6 3.7 3.5 3.8 3.8 3.4

GFSWCAN_prec_kuchsnow_261.txt.gz
Snowfall_Accumulation
0.0 0.0 0.0 0.0 0.0 0.0 0.0 0.0 0.0 0.0 0.0 0.0 0.0 0.0 0.0 0.0 0.0 0.0 0.0 0.0 0.0 17.7 3.5 0.0 0.0 0.4 0.5 0.2 3.2 3.3 3.5 5.7 5.2 11.0 15.3 15.9 11.4 2.3 1.2 0.9 3.5 2.0 7.3 11.0 8.9 18.6 16.3 0.0 0.0 1.5 2.3 0.4 0.2 0.2
0.0 0.0 0.0 0.0 0.0 0.0 0.0 0.0 0.0 0.0 0.0 0.0 0.0 0.0 0.0 0.0 0.0 0.0 0.0 0.0 0.0 2.1 5.5 0.0 0.0 0.0 0.0 0.0 0.0 0.0 0.6 0.4 1.0 7.7 5.7 4.7 14.9 6.9 4.1 7.2 0.0 9.4 2.1 5.9 6.5 5.7 1.0 0.1 0.8 0.5 0.3 0.2 0.2 0.0
0.0 0.0 0.0 0.0 0.0 0.0 0.0 0.0 0.0 0.0 0.0 0.0 0.0 0.0 0.0 0.0 0.0 0.0 0.0 0.0 0.0 8.8 9.5 0.0 1.9 0.0 0.0 0.0 0.0 1.9 0.1 0.0 0.0 0.0 6.1 7.6 20.6 3.7 10.4 3.4 2.5 2.2 0.9 5.3 2.6 1.9 0.4 0.1 0.1 0.1 0.1 0.1 0.0 0.1
0.0 0.0 0.0 0.0 0.0 0.0 0.0 0.0 0.0 0.0 0.0 0.0 0.0 0.0 0.0 0.0 0.0 0.0 0.0 0.0 0.0 1.1 31.6 15.3 0.0 0.0 0.0 0.0 0.0 0.0 0.0 0.0 0.0 0.0 21.2 24.6 20.5 4.4 9.5 2.6 2.2 0.7 2.0 6.7 5.8 2.5 1.3 0.6 0.6 0.8 0.2 0.0 0.0 0.0
0.0 0.0 0.0 0.0 0.0 0.0 0.0 0.0 0.0 0.0 0.0 0.0 0.0 0.0 0.0 0.0 0.0 0.0 0.0 0.0 0.0 0.0 24.4 9.2 0.3 0.0 0.0 0.0 0.0 0.0 0.0 0.0 2.8 19.1 27.7 20.8 6.2 6.0 5.7 4.8 6.3 1.1 5.7 5.3 15.6 6.7 3.6 3.3 2.2 1.4 1.1 0.1 0.1 0.0
0.0 0.0 0.0 0.0 0.0 0.0 0.0 0.0 0.0 0.0 0.0 0.0 0.0 0.0 0.0 0.0 0.0 0.0 22.5 0.0 0.0 0.0 8.0 18.7 1.3 1.2 0.0 0.0 0.0 0.0 0.0 0.0 2.2 12.4 17.8 8.8 0.0 1.1 16.6 9.1 1.0 1.1 1.5 2.2 5.5 5.4 3.8 3.7 2.7 1.9 1.8 1.3 0.1 0.0
0.0 0.0 0.0 0.0 0.0 0.0 0.0 0.0 0.0 0.0 0.0 0.0 0.0 0.0 0.0 0.0 0.0 3.3 7.5 0.0 0.0 0.0 17.1 26.2 9.9 1.4 0.0 0.0 0.0 0.0 0.0 0.4 1.4 8.0 14.1 5.7 1.0 0.7 12.9 10.9 1.2 1.4 1.5 1.8 1.7 1.9 3.6 3.4 3.8 1.7 0.9 0.9 0.5 0.4
0.0 0.0 0.0 0.0 0.0 0.0 0.0 0.0 0.0 0.0 0.0 0.0 0.0 0.0 0.0 0.0 0.0 0.2 0.0 0.0 0.0 0.0 5.9 26.8 15.4 8.7 0.0 4.4 5.8 0.0 2.1 3.9 9.8 8.6 7.6 4.0 2.7 5.5 18.9 0.4 0.3 0.7 0.4 1.4 1.1 0.5 1.3 1.3 1.1 1.0 0.7 0.6 0.6 0.5
0.0 0.0 0.0 0.0 0.0 0.0 0.0 0.0 0.0 0.0 0.0 0.0 0.0 0.0 0.0 0.0 17.3 1.3 0.0 0.0 0.0 0.0 24.8 11.8 8.8 17.5 1.3 5.3 3.3 4.4 2.3 19.4 5.5 10.6 4.0 1.1 10.2 20.4 7.1 1.2 0.8 0.6 0.7 0.6 0.4 0.1 0.2 0.8 1.0 0.8 1.0 0.8 0.5 1.5
0.0 0.0 0.0 0.0 0.0 0.0 0.0 0.0 0.0 0.0 0.0 0.0 0.0 8.8 58.8 7.6 0.0 0.0 0.0 16.4 19.1 14.2 8.9 9.9 0.4 9.3 2.0 8.2 10.3 10.3 10.0 12.4 17.1 4.8 1.6 10.3 7.7 4.8 2.3 1.1 0.4 1.3 0.2 0.2 0.5 0.6 0.1 0.3 0.4 0.5 0.5 0.2 0.3 1.9
0.0 0.0 0.0 0.0 0.0 0.0 0.0 0.0 0.0 0.0 0.0 0.0 18.5 26.4 1.9 0.0 0.0 8.1 32.4 28.2 17.6 18.5 4.5 3.1 2.1 4.2 1.0 15.6 15.7 6.4 16.7 7.7 12.2 3.5 4.6 9.6 6.6 4.9 2.3 2.8 1.9 1.8 0.9 0.9 0.7 0.2 0.0 0.1 0.6 0.5 1.6 1.8 2.1 3.3
0.0 0.0 0.0 0.0 0.0 0.0 0.0 0.0 0.0 0.0 0.0 0.0 0.0 0.0 0.6 4.7 16.6 24.0 19.7 10.6 4.7 5.0 3.8 3.8 4.0 2.6 5.2 2.5 15.0 17.8 20.4 13.5 13.5 3.4 17.4 9.5 8.2 3.2 2.5 2.6 2.7 2.4 2.3 1.4 2.4 6.6 5.1 2.9 2.3 2.4 3.3 4.8 4.2 4.1
0.0 0.0 0.0 0.0 0.0 0.0 0.0 0.0 0.0 0.0 0.0 0.0 3.2 19.3 23.1 23.1 29.9 18.9 11.2 4.8 4.2 2.0 2.4 3.0 7.6 3.7 3.6 2.0 14.3 14.6 19.7 18.4 5.1 22.7 13.5 7.9 3.4 1.4 1.3 1.3 2.6 2.3 2.5 3.2 5.2 7.4 6.8 8.2 9.0 8.1 9.2 11.7 10.5 11.2
0.0 0.0 0.0 0.0 0.0 0.0 0.0 0.0 0.0 0.0 0.0 10.6 16.3 28.3 24.4 20.9 11.6 9.6 3.8 4.0 2.5 2.6 2.9 3.9 8.2 7.8 5.2 11.2 13.0 22.8 10.7 8.4 19.2 20.2 11.6 10.4 8.2 5.3 3.0 3.0 3.6 6.8 6.4 6.7 9.5 10.8 11.4 12.4 15.6 16.4 16.3 16.9 14.2 15.8
0.0 0.0 0.0 0.0 0.0 0.0 0.0 0.0 0.0 0.0 3.6 14.3 12.5 19.9 12.0 12.4 7.0 6.6 5.1 3.4 3.4 4.0 7.5 10.9 11.2 8.4 10.6 15.2 10.0 10.7 15.4 13.1 10.6 11.5 15.3 12.7 8.9 5.6 6.3 5.7 6.0 7.8 8.7 9.6 10.3 11.1 12.5 11.3 9.4 13.5 13.7 12.3 10.0 11.4
0.0 0.0 0.0 0.0 0.0 0.0 0.0 0.0 0.5 1.0 4.4 6.1 8.2 9.5 6.8 9.2 10.6 8.6 7.4 7.5 2.9 6.5 4.0 9.3 16.5 19.8 17.6 11.4 13.1 9.9 7.7 9.3 13.9 10.3 9.4 5.9 6.2 6.8 7.6 7.9 9.3 9.7 9.3 9.7 9.5 8.3 8.6 8.5 6.8 8.9 9.0 8.5 9.3 7.9
0.0 0.9 0.0 0.0 0.0 0.0 0.0 1.3 1.9 4.1 4.8 4.8 9.5 9.0 8.4 9.3 12.6 10.6 9.0 7.3 3.7 8.8 10.5 6.1 12.6 14.8 8.9 9.6 11.6 9.1 15.0 14.2 13.1 11.2 7.0 5.6 6.8 8.6 9.3 9.9 11.3 10.6 9.3 8.4 8.1 7.7 8.4 7.7 6.2 4.7 7.0 10.1 7.7 7.5
0.2 0.0 0.0 0.0 0.0 0.0 1.6 1.2 1.8 2.2 3.6 6.4 10.2 12.1 8.7 12.5 12.6 9.7 8.6 6.6 7.8 7.2 4.7 10.2 2.3 5.4 7.0 8.0 9.2 13.8 13.4 10.8 7.6 7.9 9.6 10.0 9.4 9.5 9.8 11.3 11.8 10.3 9.2 9.7 8.9 8.6 8.7 8.5 6.9 8.7 8.0 8.2 6.3 6.7
0.1 0.0 0.0 0.0 0.0 1.2 4.4 3.6 1.0 3.9 7.4 6.3 8.1 6.5 6.0 8.4 8.0 8.6 7.3 5.8 7.6 6.2 7.0 7.8 8.0 8.0 12.1 12.4 13.2 11.7 10.8 8.1 10.6 11.8 12.4 12.1 11.5 11.4 12.5 11.4 11.7 11.7 10.7 11.4 9.6 9.1 9.5 8.8 7.7 7.3 6.8 6.0 6.0 5.7
0.0 0.0 0.0 0.0 0.0 0.8 2.1 1.5 0.3 0.2 5.0 5.9 4.9 4.3 3.5 6.1 4.0 2.7 1.9 3.1 5.0 10.0 12.2 11.4 15.7 19.1 18.4 17.4 14.7 12.9 12.1 7.9 7.3 7.7 12.3 13.8 14.3 11.5 12.7 10.6 10.7 10.5 8.9 9.3 9.2 8.4 7.1 6.6 6.6 5.7 4.5 3.0 3.5 3.8
0.0 0.0 0.0 0.0 0.1 0.1 0.3 1.1 1.8 0.5 1.0 2.8 1.2 0.5 2.7 0.4 0.4 0.6 0.5 1.3 7.3 12.7 17.5 20.3 20.3 19.6 18.1 16.8 12.6 10.3 10.6 7.7 9.3 6.9 9.1 12.9 13.9 9.0 10.4 10.8 9.3 8.3 7.7 8.7 8.2 8.9 6.7 6.4 4.8 3.8 4.4 5.0 3.9 4.4
0.0 0.0 0.9 0.0 1.8 0.9 0.9 0.0 0.1 0.5 0.6 0.9 0.6 0.7 1.4 1.9 0.9 1.0 0.2 1.9 9.7 14.4 15.2 15.4 15.1 13.7 12.2 14.1 14.9 11.2 12.2 8.1 7.2 6.6 7.9 6.7 10.1 10.0 11.3 11.8 8.9 9.4 8.9 8.8 6.5 5.7 4.7 3.7 3.3 3.3 3.9 4.8 4.7 5.8
0.0 1.0 3.5 2.6 3.6 1.0 0.7 0.1 0.5 0.2 0.7 0.8 0.5 0.9 0.9 2.1 1.7 0.3 1.7 2.2 10.0 12.5 9.5 7.7 9.3 8.9 9.9 12.7 8.3 9.0 10.1 7.6 7.9 8.5 9.0 8.9 8.7 8.8 7.7 8.2 6.9 5.5 5.6 6.1 4.4 4.6 5.2 4.3 3.8 4.3 4.3 4.1 6.0 6.2
0.0 4.4 6.5 4.3 2.7 3.3 1.0 2.1 0.8 0.3 0.2 0.5 1.0 0.7 1.1 1.0 0.2 1.0 2.8 6.6 10.9 6.2 5.1 7.2 5.6 5.6 5.3 5.2 7.5 9.1 10.9 7.0 6.6 7.0 7.4 4.5 4.2 5.2 3.4 4.1 4.3 4.6 5.3 4.5 3.8 4.5 4.4 5.4 5.6 5.0 4.8 5.5 6.4 5.7
4.3 3.1 3.9 3.4 1.5 1.5 0.6 0.7 1.1 0.6 0.5 0.2 0.4 1.0 1.1 0.0 1.0 1.1 2.6 8.4 7.0 6.5 6.0 4.8 3.0 3.1 5.0 7.4 8.5 8.1 5.7 3.5 3.6 4.4 5.3 3.2 3.4 3.5 3.3 3.3 3.5 4.1 3.6 3.6 3.9 5.1 5.7 5.2 5.6 5.1 5.0 5.1 6.1 6.0
3.4 0.8 1.2 1.3 1.2 0.9 0.2 0.5 0.5 0.9 0.4 0.7 1.6 1.0 0.4 0.9 1.2 3.3 5.7 9.3 7.7 7.2 7.6 7.2 5.5 3.3 3.1 3.1 3.8 3.4 3.6 2.5 1.9 2.7 3.6 2.4 2.9 3.9 3.7 3.7 3.7 4.1 2.9 4.5 5.4 6.1 4.9 4.2 4.7 4.3 5.4 5.0 5.9 6.1
2.1 1.5 0.5 0.0 1.7 2.5 2.6 1.5 1.5 2.0 2.2 2.7 2.4 1.8 2.5 3.2 4.4 7.3 7.2 6.8 5.8 6.2 4.5 3.9 2.4 2.3 2.9 3.0 1.7 1.6 1.3 0.9 1.2 2.8 3.3 2.8 2.6 3.0 3.7 6.1 6.6 6.4 3.8 4.3 4.8 5.2 5.5 5.4 5.5 5.1 5.4 6.2 5.8 6.3
0.3 0.5 1.3 2.1 3.0 3.1 4.9 3.9 3.6 4.2 4.1 3.3 3.1 3.5 3.4 4.2 7.4 8.8 7.7 6.5 5.4 2.9 2.0 1.6 1.6 1.8 2.1 2.6 2.6 2.2 1.9 1.6 1.8 2.3 2.6 2.5 2.2 3.4 3.9 3.4 3.3 2.6 2.8 3.5 3.7 3.6 4.1 4.9 6.1 6.2 6.6 6.3 6.7 6.1
1.2 0.9 1.0 1.7 1.9 1.6 2.8 3.7 4.0 4.1 3.2 3.0 3.2 3.3 4.1 4.7 10.1 9.3 7.8 5.9 4.0 2.5 2.6 2.4 4.0 2.2 2.0 3.1 1.9 1.8 2.4 2.9 4.2 5.2 6.0 7.8 6.4 5.7 3.3 2.7 2.6 2.4 2.3 2.5 2.3 2.7 3.6 4.3 5.5 5.3 6.7 6.7 7.2 7.3
0.7 0.6 0.7 0.3 0.5 0.7 4.2 2.0 2.6 2.2 0.5 1.4 1.0 0.9 1.2 8.0 12.1 8.4 6.8 5.0 4.6 5.6 6.8 5.2 4.7 2.6 4.0 1.9 4.4 3.1 3.4 3.7 4.4 5.9 7.4 7.0 6.7 5.1 2.8 2.4 1.9 2.1 2.1 2.5 2.7 2.9 2.8 2.4 3.2 3.4 4.6 5.2 7.0 8.1
1.0 1.8 2.5 2.0 2.3 3.6 2.9 1.3 1.6 1.8 2.2 2.3 2.4 2.4 4.1 6.5 9.2 5.6 5.7 7.8 4.8 3.8 3.1 3.5 3.7 4.5 4.5 4.4 5.5 5.1 7.4 5.4 5.0 5.3 6.1 6.5 4.9 3.4 2.7 2.1 2.2 1.9 2.1 1.9 2.3 2.5 3.4 3.4 4.7 5.6 4.8 5.1 5.5 6.3
2.2 4.2 4.6 4.2 5.5 3.5 3.9 5.7 3.6 4.3 3.8 4.0 4.3 2.1 4.9 5.1 4.1 6.9 5.3 5.2 5.5 5.4 5.2 5.6 5.9 7.3 7.0 8.3 7.7 7.5 7.2 6.2 4.5 4.0 4.0 3.8 3.9 3.1 2.4 1.7 2.2 2.5 2.4 2.2 2.4 2.3 2.7 3.9 5.0 5.4 6.0 5.4 5.8 5.6
3.1 3.4 3.9 5.3 5.6 5.5 4.6 6.1 5.3 6.3 5.4 5.3 5.9 5.8 6.2 4.9 6.6 9.8 4.8 5.4 11.2 11.4 9.4 8.9 9.1 8.9 9.2 7.6 6.3 6.6 6.2 5.9 5.2 3.6 3.3 2.6 2.0 1.7 1.4 1.9 1.9 2.5 2.7 2.9 3.0 3.0 3.1 3.0 3.6 3.7 3.5 3.8 3.8 3.4